Wetterdaten: Sonntag, 17.02.2019
Datum Zeit Temp. Aussen Temp. o. S. +5cm Feuchte Auss Luftdruck Regen Sonnenschein Regendauer Solar Windben Empfang
17.02.2019 00:00 3,4 C 1,7 C 0,6 C 86 % 1022,7 hPa 0,0 l/m 0 min 0 min 0 W/m 0,0 km/h (0 Bft) 97,87 %
17.02.2019 00:02 3,4 C 1,7 C 0,6 C 86 % 1022,7 hPa 0,0 l/m 0 min 0 min 0 W/m 0,0 km/h (0 Bft) 97,06 %
17.02.2019 00:04 3,3 C 1,7 C 0,6 C 86 % 1022,7 hPa 0,0 l/m 0 min 0 min 0 W/m 0,0 km/h (0 Bft) 95,74 %
17.02.2019 00:07 3,3 C 1,7 C 0,6 C 86 % 1022,7 hPa 0,0 l/m 0 min 0 min 0 W/m 3,2 km/h (1 Bft) 98,70 %
17.02.2019 00:08 3,3 C 1,7 C 0,6 C 86 % 1022,7 hPa 0,0 l/m 0 min 0 min 0 W/m 0,0 km/h (0 Bft) 95,65 %
17.02.2019 00:10 3,3 C 1,7 C 0,6 C 86 % 1022,8 hPa 0,0 l/m 0 min 0 min 0 W/m 3,2 km/h (1 Bft) 97,87 %
17.02.2019 00:12 3,2 C 1,7 C 0,6 C 86 % 1022,7 hPa 0,0 l/m 0 min 0 min 0 W/m 3,2 km/h (1 Bft) 97,83 %
17.02.2019 00:14 3,2 C 1,7 C 0,6 C 86 % 1022,7 hPa 0,0 l/m 0 min 0 min 0 W/m 0,0 km/h (0 Bft) 97,87 %
17.02.2019 00:16 3,2 C 1,7 C 0,6 C 86 % 1022,7 hPa 0,0 l/m 0 min 0 min 0 W/m 0,0 km/h (0 Bft) 95,83 %
17.02.2019 00:18 3,1 C 1,7 C 0,0 C 86 % 1022,7 hPa 0,0 l/m 0 min 0 min 0 W/m 0,0 km/h (0 Bft) 93,62 %
17.02.2019 00:20 3,1 C 1,1 C 0,0 C 86 % 1022,6 hPa 0,0 l/m 0 min 0 min 0 W/m 0,0 km/h (0 Bft) 95,74 %
17.02.2019 00:22 3,1 C 1,1 C 0,0 C 86 % 1022,7 hPa 0,0 l/m 0 min 0 min 0 W/m 0,0 km/h (0 Bft) 95,65 %
17.02.2019 00:24 3,1 C 1,1 C 0,0 C 86 % 1022,7 hPa 0,0 l/m 0 min 0 min 0 W/m 0,0 km/h (0 Bft) 91,49 %
17.02.2019 00:26 3,0 C 1,1 C 0,0 C 86 % 1022,6 hPa 0,0 l/m 0 min 0 min 0 W/m 0,0 km/h (0 Bft) 95,74 %
17.02.2019 00:28 3,0 C 1,1 C 0,0 C 86 % 1022,7 hPa 0,0 l/m 0 min 0 min 0 W/m 0,0 km/h (0 Bft) 97,87 %
17.02.2019 00:30 2,9 C 1,1 C 0,0 C 86 % 1022,7 hPa 0,0 l/m 0 min 0 min 0 W/m 0,0 km/h (0 Bft) 97,87 %
17.02.2019 00:32 2,9 C 1,1 C 0,0 C 86 % 1022,7 hPa 0,0 l/m 0 min 0 min 0 W/m 0,0 km/h (0 Bft) 95,83 %
17.02.2019 00:34 2,9 C 1,1 C 0,0 C 87 % 1022,7 hPa 0,0 l/m 0 min 0 min 0 W/m 0,0 km/h (0 Bft) 93,48 %
17.02.2019 00:36 2,8 C 1,1 C 0,0 C 87 % 1022,6 hPa 0,0 l/m 0 min 0 min 0 W/m 0,0 km/h (0 Bft) 95,74 %
17.02.2019 00:38 2,8 C 1,1 C 0,0 C 87 % 1022,6 hPa 0,0 l/m 0 min 0 min 0 W/m 0,0 km/h (0 Bft) 95,74 %
17.02.2019 00:40 2,8 C 1,1 C 0,0 C 87 % 1022,6 hPa 0,0 l/m 0 min 0 min 0 W/m 3,2 km/h (1 Bft) 95,74 %
17.02.2019 00:42 2,8 C 1,7 C 0,0 C 87 % 1022,6 hPa 0,0 l/m 0 min 0 min 0 W/m 3,2 km/h (1 Bft) 93,62 %
17.02.2019 00:44 2,7 C 2,2 C 0,0 C 87 % 1022,6 hPa 0,0 l/m 0 min 0 min 0 W/m 6,4 km/h (2 Bft) 93,62 %
17.02.2019 00:46 2,7 C 2,8 C 0,0 C 87 % 1022,6 hPa 0,0 l/m 0 min 0 min 0 W/m 6,4 km/h (2 Bft) 95,65 %
17.02.2019 00:48 2,7 C 3,3 C 0,6 C 87 % 1022,6 hPa 0,0 l/m 0 min 0 min 0 W/m 6,4 km/h (2 Bft) 95,74 %
17.02.2019 00:50 2,7 C 2,8 C 0,6 C 88 % 1022,6 hPa 0,0 l/m 0 min 0 min 0 W/m 3,2 km/h (1 Bft) 95,74 %
17.02.2019 00:52 2,7 C 2,8 C 0,6 C 88 % 1022,6 hPa 0,0 l/m 0 min 0 min 0 W/m 3,2 km/h (1 Bft) 91,49 %
17.02.2019 00:54 2,7 C 2,8 C 0,6 C 88 % 1022,6 hPa 0,0 l/m 0 min 0 min 0 W/m 0,0 km/h (0 Bft) 95,74 %
17.02.2019 00:56 2,7 C 2,8 C 0,6 C 88 % 1022,5 hPa 0,0 l/m 0 min 0 min 0 W/m 3,2 km/h (1 Bft) 95,74 %
17.02.2019 00:58 2,7 C 3,3 C 0,6 C 88 % 1022,6 hPa 0,0 l/m 0 min 0 min 0 W/m 6,4 km/h (2 Bft) 93,48 %
17.02.2019 01:00 2,8 C 3,9 C 1,1 C 89 % 1022,5 hPa 0,0 l/m 0 min 0 min 0 W/m 9,7 km/h (2 Bft) 97,87 %
17.02.2019 01:02 2,9 C 3,9 C 1,1 C 89 % 1022,5 hPa 0,0 l/m 0 min 0 min 0 W/m 9,7 km/h (2 Bft) 95,83 %
17.02.2019 01:04 2,9 C 4,4 C 1,7 C 89 % 1022,5 hPa 0,0 l/m 0 min 0 min 0 W/m 9,7 km/h (2 Bft) 97,87 %
17.02.2019 01:06 3,1 C 4,4 C 2,2 C 90 % 1022,4 hPa 0,0 l/m 0 min 0 min 0 W/m 9,7 km/h (2 Bft) 97,96 %
17.02.2019 01:08 3,2 C 4,4 C 2,8 C 90 % 1022,4 hPa 0,0 l/m 0 min 0 min 0 W/m 9,7 km/h (2 Bft) 97,87 %
17.02.2019 01:10 3,3 C 4,4 C 2,8 C 90 % 1022,4 hPa 0,0 l/m 0 min 0 min 0 W/m 6,4 km/h (2 Bft) 97,87 %
17.02.2019 01:12 3,3 C 4,4 C 2,8 C 91 % 1022,4 hPa 0,0 l/m 0 min 0 min 0 W/m 9,7 km/h (2 Bft) 97,83 %
17.02.2019 01:14 3,4 C 4,4 C 3,3 C 91 % 1022,4 hPa 0,0 l/m 0 min 0 min 0 W/m 16,1 km/h (3 Bft) 97,87 %
17.02.2019 01:16 3,6 C 5,0 C 3,3 C 91 % 1022,4 hPa 0,0 l/m 0 min 0 min 0 W/m 9,7 km/h (2 Bft) 97,87 %
17.02.2019 01:18 3,7 C 5,0 C 3,3 C 91 % 1022,4 hPa 0,0 l/m 0 min 0 min 0 W/m 9,7 km/h (2 Bft) 97,87 %
17.02.2019 01:20 3,8 C 5,0 C 3,3 C 91 % 1022,4 hPa 0,0 l/m 0 min 0 min 0 W/m 12,9 km/h (3 Bft) 97,87 %
17.02.2019 01:22 3,9 C 4,4 C 3,3 C 91 % 1022,3 hPa 0,0 l/m 0 min 0 min 0 W/m 6,4 km/h (2 Bft) 97,87 %
17.02.2019 01:24 4,0 C 5,0 C 3,3 C 91 % 1022,4 hPa 0,0 l/m 0 min 0 min 0 W/m 12,9 km/h (3 Bft) 97,83 %
17.02.2019 01:26 4,1 C 4,4 C 3,3 C 91 % 1022,4 hPa 0,0 l/m 0 min 0 min 0 W/m 9,7 km/h (2 Bft) 100,00 %
17.02.2019 01:28 4,2 C 4,4 C 3,3 C 91 % 1022,3 hPa 0,0 l/m 0 min 0 min 0 W/m 12,9 km/h (3 Bft) 100,00 %
17.02.2019 01:30 4,2 C 4,4 C 3,3 C 91 % 1022,3 hPa 0,0 l/m 0 min 0 min 0 W/m 9,7 km/h (2 Bft) 97,87 %
17.02.2019 01:32 4,2 C 4,4 C 3,3 C 91 % 1022,3 hPa 0,0 l/m 0 min 0 min 0 W/m 9,7 km/h (2 Bft) 100,00 %
17.02.2019 01:34 4,3 C 4,4 C 3,3 C 91 % 1022,3 hPa 0,0 l/m 0 min 0 min 0 W/m 9,7 km/h (2 Bft) 100,00 %
17.02.2019 01:36 4,3 C 4,4 C 3,3 C 91 % 1022,3 hPa 0,0 l/m 0 min 0 min 0 W/m 9,7 km/h (2 Bft) 98,28 %
17.02.2019 01:38 4,4 C 4,4 C 3,3 C 91 % 1022,2 hPa 0,0 l/m 0 min 0 min 0 W/m 12,9 km/h (3 Bft) 100,00 %
17.02.2019 01:40 4,4 C 4,4 C 3,3 C 90 % 1022,3 hPa 0,0 l/m 0 min 0 min 0 W/m 9,7 km/h (2 Bft) 97,14 %
17.02.2019 01:42 4,4 C 4,4 C 3,3 C 90 % 1022,3 hPa 0,0 l/m 0 min 0 min 0 W/m 9,7 km/h (2 Bft) 100,00 %
17.02.2019 01:44 4,5 C 4,4 C 3,3 C 90 % 1022,2 hPa 0,0 l/m 0 min 0 min 0 W/m 9,7 km/h (2 Bft) 100,00 %
17.02.2019 01:46 4,5 C 4,4 C 3,3 C 90 % 1022,2 hPa 0,0 l/m 0 min 0 min 0 W/m 9,7 km/h (2 Bft) 100,00 %
17.02.2019 01:48 4,6 C 4,4 C 3,3 C 90 % 1022,2 hPa 0,0 l/m 0 min 0 min 0 W/m 9,7 km/h (2 Bft) 100,00 %
17.02.2019 01:50 4,6 C 4,4 C 3,3 C 89 % 1022,2 hPa 0,0 l/m 0 min 0 min 0 W/m 9,7 km/h (2 Bft) 100,00 %
17.02.2019 01:52 4,6 C 4,4 C 3,3 C 89 % 1022,1 hPa 0,0 l/m 0 min 0 min 0 W/m 9,7 km/h (2 Bft) 97,87 %
17.02.2019 01:54 4,7 C 4,4 C 3,3 C 89 % 1022,1 hPa 0,0 l/m 0 min 0 min 0 W/m 9,7 km/h (2 Bft) 100,00 %
17.02.2019 01:56 4,7 C 4,4 C 3,3 C 89 % 1022,1 hPa 0,0 l/m 0 min 0 min 0 W/m 9,7 km/h (2 Bft) 100,00 %
17.02.2019 01:58 4,7 C 4,4 C 3,3 C 89 % 1022,1 hPa 0,0 l/m 0 min 0 min 0 W/m 9,7 km/h (2 Bft) 100,00 %
17.02.2019 02:00 4,7 C 4,4 C 3,3 C 89 % 1022,1 hPa 0,0 l/m 0 min 0 min 0 W/m 12,9 km/h (3 Bft) 100,00 %
17.02.2019 02:02 4,7 C 4,4 C 3,3 C 88 % 1022,1 hPa 0,0 l/m 0 min 0 min 0 W/m 9,7 km/h (2 Bft) 100,00 %
17.02.2019 02:04 4,7 C 4,4 C 3,3 C 88 % 1022,1 hPa 0,0 l/m 0 min 0 min 0 W/m 9,7 km/h (2 Bft) 100,00 %
17.02.2019 02:06 4,7 C 4,4 C 3,3 C 88 % 1022,1 hPa 0,0 l/m 0 min 0 min 0 W/m 12,9 km/h (3 Bft) 100,00 %
17.02.2019 02:08 4,7 C 4,4 C 3,3 C 88 % 1022,1 hPa 0,0 l/m 0 min 0 min 0 W/m 19,3 km/h (3 Bft) 97,87 %
17.02.2019 02:10 4,7 C 4,4 C 3,3 C 88 % 1022,1 hPa 0,0 l/m 0 min 0 min 0 W/m 12,9 km/h (3 Bft) 100,00 %
17.02.2019 02:12 4,8 C 4,4 C 3,3 C 88 % 1022,1 hPa 0,0 l/m 0 min 0 min 0 W/m 16,1 km/h (3 Bft) 97,87 %
17.02.2019 02:14 4,8 C 4,4 C 3,3 C 88 % 1022,1 hPa 0,0 l/m 0 min 0 min 0 W/m 16,1 km/h (3 Bft) 97,83 %
17.02.2019 02:16 4,8 C 4,4 C 3,3 C 88 % 1022,1 hPa 0,0 l/m 0 min 0 min 0 W/m 16,1 km/h (3 Bft) 95,74 %
17.02.2019 02:18 4,8 C 4,4 C 3,3 C 88 % 1022,1 hPa 0,0 l/m 0 min 0 min 0 W/m 9,7 km/h (2 Bft) 100,00 %
17.02.2019 02:20 4,8 C 4,4 C 3,3 C 88 % 1022,1 hPa 0,0 l/m 0 min 0 min 0 W/m 9,7 km/h (2 Bft) 97,87 %
17.02.2019 02:22 4,8 C 4,4 C 3,3 C 88 % 1022,1 hPa 0,0 l/m 0 min 0 min 0 W/m 9,7 km/h (2 Bft) 97,87 %
17.02.2019 02:24 4,8 C 3,9 C 3,3 C 88 % 1022,1 hPa 0,0 l/m 0 min 0 min 0 W/m 9,7 km/h (2 Bft) 97,87 %
17.02.2019 02:26 4,8 C 3,9 C 3,3 C 88 % 1022,1 hPa 0,0 l/m 0 min 0 min 0 W/m 12,9 km/h (3 Bft) 95,65 %
17.02.2019 02:28 4,8 C 3,9 C 3,3 C 87 % 1022,1 hPa 0,0 l/m 0 min 0 min 0 W/m 9,7 km/h (2 Bft) 95,74 %
17.02.2019 02:30 4,8 C 3,9 C 3,3 C 87 % 1022,1 hPa 0,0 l/m 0 min 0 min 0 W/m 6,4 km/h (2 Bft) 95,74 %
17.02.2019 02:32 4,8 C 3,9 C 3,3 C 87 % 1022,1 hPa 0,0 l/m 0 min 0 min 0 W/m 9,7 km/h (2 Bft) 91,49 %
17.02.2019 02:34 4,7 C 3,9 C 3,3 C 87 % 1022,1 hPa 0,0 l/m 0 min 0 min 0 W/m 6,4 km/h (2 Bft) 95,74 %
17.02.2019 02:36 4,7 C 3,9 C 3,3 C 87 % 1022,1 hPa 0,0 l/m 0 min 0 min 0 W/m 9,7 km/h (2 Bft) 93,10 %
17.02.2019 02:38 4,7 C 3,9 C 3,3 C 87 % 1022,1 hPa 0,0 l/m 0 min 0 min 0 W/m 9,7 km/h (2 Bft) 100,00 %
17.02.2019 02:40 4,7 C 3,9 C 3,3 C 87 % 1022,1 hPa 0,0 l/m 0 min 0 min 0 W/m 12,9 km/h (3 Bft) 93,62 %
17.02.2019 02:42 4,7 C 3,9 C 2,8 C 87 % 1022,0 hPa 0,0 l/m 0 min 0 min 0 W/m 9,7 km/h (2 Bft) 93,62 %
17.02.2019 02:44 4,7 C 3,9 C 2,8 C 87 % 1021,9 hPa 0,0 l/m 0 min 0 min 0 W/m 9,7 km/h (2 Bft) 95,74 %
17.02.2019 02:46 4,7 C 3,9 C 2,8 C 87 % 1022,0 hPa 0,0 l/m 0 min 0 min 0 W/m 9,7 km/h (2 Bft) 95,74 %
17.02.2019 02:48 4,7 C 3,9 C 3,3 C 87 % 1022,0 hPa 0,0 l/m 0 min 0 min 0 W/m 12,9 km/h (3 Bft) 93,48 %
17.02.2019 02:50 4,7 C 3,9 C 3,3 C 87 % 1022,0 hPa 0,0 l/m 0 min 0 min 0 W/m 6,4 km/h (2 Bft) 95,74 %
17.02.2019 02:52 4,6 C 3,9 C 3,3 C 87 % 1021,9 hPa 0,0 l/m 0 min 0 min 0 W/m 12,9 km/h (3 Bft) 95,74 %
17.02.2019 02:54 4,6 C 3,9 C 3,3 C 87 % 1022,0 hPa 0,0 l/m 0 min 0 min 0 W/m 9,7 km/h (2 Bft) 95,74 %
17.02.2019 02:56 4,6 C 3,9 C 2,8 C 88 % 1022,0 hPa 0,0 l/m 0 min 0 min 0 W/m 9,7 km/h (2 Bft) 95,74 %
17.02.2019 02:58 4,6 C 3,9 C 2,8 C 88 % 1021,9 hPa 0,0 l/m 0 min 0 min 0 W/m 6,4 km/h (2 Bft) 93,62 %
17.02.2019 03:00 4,6 C 3,9 C 3,3 C 88 % 1021,9 hPa 0,0 l/m 0 min 0 min 0 W/m 6,4 km/h (2 Bft) 95,65 %
17.02.2019 03:02 4,6 C 3,9 C 2,8 C 88 % 1021,9 hPa 0,0 l/m 0 min 0 min 0 W/m 6,4 km/h (2 Bft) 93,62 %
17.02.2019 03:04 4,6 C 3,9 C 2,8 C 88 % 1021,9 hPa 0,0 l/m 0 min 0 min 0 W/m 6,4 km/h (2 Bft) 95,74 %
17.02.2019 03:06 4,6 C 3,9 C 2,8 C 87 % 1021,8 hPa 0,0 l/m 0 min 0 min 0 W/m 9,7 km/h (2 Bft) 97,87 %
17.02.2019 03:08 4,6 C 3,9 C 2,8 C 87 % 1021,8 hPa 0,0 l/m 0 min 0 min 0 W/m 12,9 km/h (3 Bft) 98,00 %
17.02.2019 03:10 4,6 C 3,9 C 3,3 C 87 % 1021,9 hPa 0,0 l/m 0 min 0 min 0 W/m 6,4 km/h (2 Bft) 97,87 %
17.02.2019 03:12 4,6 C 3,9 C 2,8 C 87 % 1021,8 hPa 0,0 l/m 0 min 0 min 0 W/m 9,7 km/h (2 Bft) 97,83 %
17.02.2019 03:14 4,6 C 3,9 C 2,8 C 87 % 1021,8 hPa 0,0 l/m 0 min 0 min 0 W/m 9,7 km/h (2 Bft) 95,74 %
17.02.2019 03:16 4,6 C 3,9 C 2,8 C 87 % 1021,8 hPa 0,0 l/m 0 min 0 min 0 W/m 12,9 km/h (3 Bft) 100,00 %
17.02.2019 03:18 4,6 C 3,9 C 3,3 C 87 % 1021,8 hPa 0,0 l/m 0 min 0 min 0 W/m 12,9 km/h (3 Bft) 100,00 %
17.02.2019 03:20 4,5 C 3,9 C 3,3 C 87 % 1021,8 hPa 0,0 l/m 0 min 0 min 0 W/m 12,9 km/h (3 Bft) 100,00 %
17.02.2019 03:22 4,5 C 3,9 C 3,3 C 88 % 1021,8 hPa 0,0 l/m 0 min 0 min 0 W/m 9,7 km/h (2 Bft) 97,83 %
17.02.2019 03:24 4,5 C 3,9 C 3,3 C 88 % 1021,8 hPa 0,0 l/m 0 min 0 min 0 W/m 6,4 km/h (2 Bft) 97,87 %
17.02.2019 03:26 4,5 C 3,9 C 3,3 C 88 % 1021,7 hPa 0,0 l/m 0 min 0 min 0 W/m 12,9 km/h (3 Bft) 100,00 %
17.02.2019 03:28 4,5 C 3,9 C 3,3 C 88 % 1021,7 hPa 0,0 l/m 0 min 0 min 0 W/m 6,4 km/h (2 Bft) 100,00 %
17.02.2019 03:30 4,5 C 3,9 C 3,3 C 88 % 1021,7 hPa 0,0 l/m 0 min 0 min 0 W/m 12,9 km/h (3 Bft) 100,00 %
17.02.2019 03:32 4,6 C 3,9 C 3,3 C 88 % 1021,7 hPa 0,0 l/m 0 min 0 min 0 W/m 16,1 km/h (3 Bft) 100,00 %
17.02.2019 03:34 4,5 C 3,9 C 3,3 C 88 % 1021,7 hPa 0,0 l/m 0 min 0 min 0 W/m 16,1 km/h (3 Bft) 100,00 %
17.02.2019 03:36 4,6 C 3,9 C 3,3 C 87 % 1021,7 hPa 0,0 l/m 0 min 0 min 0 W/m 12,9 km/h (3 Bft) 100,00 %
17.02.2019 03:38 4,6 C 3,9 C 3,3 C 87 % 1021,7 hPa 0,0 l/m 0 min 0 min 0 W/m 9,7 km/h (2 Bft) 100,00 %
17.02.2019 03:40 4,5 C 3,9 C 3,3 C 87 % 1021,6 hPa 0,0 l/m 0 min 0 min 0 W/m 9,7 km/h (2 Bft) 100,00 %
17.02.2019 03:42 4,5 C 3,9 C 3,3 C 87 % 1021,6 hPa 0,0 l/m 0 min 0 min 0 W/m 12,9 km/h (3 Bft) 100,00 %
17.02.2019 03:44 4,5 C 3,9 C 3,3 C 87 % 1021,6 hPa 0,0 l/m 0 min 0 min 0 W/m 16,1 km/h (3 Bft) 100,00 %
17.02.2019 03:46 4,6 C 3,9 C 3,3 C 87 % 1021,6 hPa 0,0 l/m 0 min 0 min 0 W/m 12,9 km/h (3 Bft) 100,00 %
17.02.2019 03:48 4,6 C 3,9 C 3,3 C 87 % 1021,6 hPa 0,0 l/m 0 min 0 min 0 W/m 12,9 km/h (3 Bft) 100,00 %
17.02.2019 03:50 4,6 C 3,9 C 3,3 C 87 % 1021,5 hPa 0,0 l/m 0 min 0 min 0 W/m 12,9 km/h (3 Bft) 100,00 %
17.02.2019 03:52 4,6 C 3,9 C 3,3 C 87 % 1021,6 hPa 0,0 l/m 0 min 0 min 0 W/m 9,7 km/h (2 Bft) 100,00 %
17.02.2019 03:54 4,6 C 3,9 C 3,3 C 87 % 1021,5 hPa 0,0 l/m 0 min 0 min 0 W/m 12,9 km/h (3 Bft) 100,00 %
17.02.2019 03:56 4,6 C 3,9 C 3,3 C 87 % 1021,6 hPa 0,0 l/m 0 min 0 min 0 W/m 9,7 km/h (2 Bft) 100,00 %
17.02.2019 03:58 4,6 C 3,9 C 3,3 C 87 % 1021,6 hPa 0,0 l/m 0 min 0 min 0 W/m 9,7 km/h (2 Bft) 100,00 %
17.02.2019 04:00 4,6 C 3,9 C 3,3 C 87 % 1021,6 hPa 0,0 l/m 0 min 0 min 0 W/m 9,7 km/h (2 Bft) 100,00 %
17.02.2019 04:05 4,6 C 3,9 C 3,3 C 87 % 1021,4 hPa 0,0 l/m 0 min 0 min 0 W/m 12,9 km/h (3 Bft) 96,88 %
17.02.2019 04:06 4,6 C 3,9 C 3,3 C 87 % 1021,4 hPa 0,0 l/m 0 min 0 min 0 W/m 9,7 km/h (2 Bft) 95,83 %
17.02.2019 04:08 4,6 C 3,9 C 3,3 C 87 % 1021,4 hPa 0,0 l/m 0 min 0 min 0 W/m 6,4 km/h (2 Bft) 97,87 %
17.02.2019 04:10 4,6 C 3,9 C 3,3 C 87 % 1021,4 hPa 0,0 l/m 0 min 0 min 0 W/m 9,7 km/h (2 Bft) 97,83 %
17.02.2019 04:12 4,5 C 3,9 C 3,3 C 87 % 1021,3 hPa 0,0 l/m 0 min 0 min 0 W/m 12,9 km/h (3 Bft) 97,87 %
17.02.2019 04:14 4,6 C 3,9 C 2,8 C 87 % 1021,4 hPa 0,0 l/m 0 min 0 min 0 W/m 6,4 km/h (2 Bft) 97,87 %
17.02.2019 04:16 4,5 C 3,9 C 2,8 C 87 % 1021,3 hPa 0,0 l/m 0 min 0 min 0 W/m 9,7 km/h (2 Bft) 97,87 %
17.02.2019 04:18 4,5 C 3,9 C 2,8 C 87 % 1021,3 hPa 0,0 l/m 0 min 0 min 0 W/m 9,7 km/h (2 Bft) 97,87 %
17.02.2019 04:20 4,5 C 3,9 C 2,8 C 87 % 1021,2 hPa 0,0 l/m 0 min 0 min 0 W/m 3,2 km/h (1 Bft) 97,83 %
17.02.2019 04:22 4,5 C 3,9 C 2,8 C 87 % 1021,3 hPa 0,0 l/m 0 min 0 min 0 W/m 6,4 km/h (2 Bft) 97,87 %
17.02.2019 04:24 4,5 C 3,9 C 2,8 C 87 % 1021,2 hPa 0,0 l/m 0 min 0 min 0 W/m 9,7 km/h (2 Bft) 95,74 %
17.02.2019 04:26 4,5 C 3,9 C 2,8 C 87 % 1021,2 hPa 0,0 l/m 0 min 0 min 0 W/m 9,7 km/h (2 Bft) 97,87 %
17.02.2019 04:28 4,4 C 3,9 C 2,8 C 87 % 1021,2 hPa 0,0 l/m 0 min 0 min 0 W/m 9,7 km/h (2 Bft) 95,74 %
17.02.2019 04:30 4,4 C 3,3 C 2,8 C 87 % 1021,2 hPa 0,0 l/m 0 min 0 min 0 W/m 9,7 km/h (2 Bft) 95,74 %
17.02.2019 04:32 4,4 C 3,9 C 2,8 C 87 % 1021,2 hPa 0,0 l/m 0 min 0 min 0 W/m 12,9 km/h (3 Bft) 95,74 %
17.02.2019 04:34 4,4 C 3,9 C 2,8 C 87 % 1021,2 hPa 0,0 l/m 0 min 0 min 0 W/m 6,4 km/h (2 Bft) 95,65 %
17.02.2019 04:36 4,4 C 3,9 C 2,8 C 87 % 1021,2 hPa 0,0 l/m 0 min 0 min 0 W/m 9,7 km/h (2 Bft) 92,73 %
17.02.2019 04:38 4,4 C 3,9 C 2,8 C 87 % 1021,2 hPa 0,0 l/m 0 min 0 min 0 W/m 9,7 km/h (2 Bft) 97,83 %
17.02.2019 04:40 4,3 C 3,9 C 2,8 C 87 % 1021,2 hPa 0,0 l/m 0 min 0 min 0 W/m 6,4 km/h (2 Bft) 97,87 %
17.02.2019 04:42 4,3 C 3,3 C 2,8 C 87 % 1021,2 hPa 0,0 l/m 0 min 0 min 0 W/m 6,4 km/h (2 Bft) 94,74 %
17.02.2019 04:44 4,3 C 3,3 C 2,8 C 87 % 1021,1 hPa 0,0 l/m 0 min 0 min 0 W/m 9,7 km/h (2 Bft) 95,83 %
17.02.2019 04:46 4,3 C 3,3 C 2,8 C 87 % 1021,2 hPa 0,0 l/m 0 min 0 min 0 W/m 6,4 km/h (2 Bft) 97,87 %
17.02.2019 04:48 4,3 C 3,3 C 2,8 C 87 % 1021,1 hPa 0,0 l/m 0 min 0 min 0 W/m 9,7 km/h (2 Bft) 95,74 %
17.02.2019 04:50 4,3 C 3,3 C 2,8 C 87 % 1021,1 hPa 0,0 l/m 0 min 0 min 0 W/m 16,1 km/h (3 Bft) 95,74 %
17.02.2019 04:52 4,3 C 3,3 C 2,8 C 87 % 1021,1 hPa 0,0 l/m 0 min 0 min 0 W/m 9,7 km/h (2 Bft) 95,74 %
17.02.2019 04:54 4,2 C 3,3 C 2,8 C 87 % 1021,1 hPa 0,0 l/m 0 min 0 min 0 W/m 9,7 km/h (2 Bft) 95,74 %
17.02.2019 04:56 4,2 C 3,3 C 2,8 C 87 % 1021,0 hPa 0,0 l/m 0 min 0 min 0 W/m 9,7 km/h (2 Bft) 92,59 %
17.02.2019 04:58 4,2 C 3,9 C 2,8 C 87 % 1021,0 hPa 0,0 l/m 0 min 0 min 0 W/m 9,7 km/h (2 Bft) 95,74 %
17.02.2019 05:00 4,2 C 3,9 C 2,8 C 87 % 1021,0 hPa 0,0 l/m 0 min 0 min 0 W/m 12,9 km/h (3 Bft) 95,74 %
17.02.2019 05:02 4,2 C 3,9 C 2,8 C 87 % 1021,1 hPa 0,0 l/m 0 min 0 min 0 W/m 9,7 km/h (2 Bft) 95,65 %
17.02.2019 05:04 4,2 C 3,3 C 2,8 C 87 % 1021,1 hPa 0,0 l/m 0 min 0 min 0 W/m 9,7 km/h (2 Bft) 95,74 %
17.02.2019 05:05 4,2 C 3,3 C 2,8 C 87 % 1021,1 hPa 0,0 l/m 0 min 0 min 0 W/m 12,9 km/h (3 Bft) 97,37 %
17.02.2019 05:10 4,2 C 3,3 C 2,8 C 87 % 1021,0 hPa 0,0 l/m 0 min 0 min 0 W/m 12,9 km/h (3 Bft) 100,00 %
17.02.2019 05:12 4,2 C 3,9 C 2,8 C 87 % 1020,9 hPa 0,0 l/m 0 min 0 min 0 W/m 12,9 km/h (3 Bft) 100,00 %
17.02.2019 05:14 4,2 C 3,9 C 2,8 C 87 % 1021,0 hPa 0,0 l/m 0 min 0 min 0 W/m 16,1 km/h (3 Bft) 97,37 %
17.02.2019 05:19 4,2 C 3,9 C 2,8 C 87 % 1021,0 hPa 0,0 l/m 0 min 0 min 0 W/m 16,1 km/h (3 Bft) 100,00 %
17.02.2019 05:20 4,2 C 3,9 C 2,8 C 87 % 1021,0 hPa 0,0 l/m 0 min 0 min 0 W/m 12,9 km/h (3 Bft) 91,67 %
17.02.2019 05:22 4,2 C 3,9 C 2,8 C 87 % 1020,9 hPa 0,0 l/m 0 min 0 min 0 W/m 12,9 km/h (3 Bft) 95,65 %
17.02.2019 05:24 4,2 C 3,9 C 2,8 C 87 % 1020,9 hPa 0,0 l/m 0 min 0 min 0 W/m 12,9 km/h (3 Bft) 91,84 %
17.02.2019 05:26 4,2 C 3,9 C 2,8 C 87 % 1021,0 hPa 0,0 l/m 0 min 0 min 0 W/m 12,9 km/h (3 Bft) 95,74 %
17.02.2019 05:28 4,2 C 3,9 C 2,8 C 87 % 1020,9 hPa 0,0 l/m 0 min 0 min 0 W/m 16,1 km/h (3 Bft) 97,87 %
17.02.2019 05:30 4,2 C 3,9 C 2,8 C 88 % 1020,9 hPa 0,0 l/m 0 min 0 min 0 W/m 16,1 km/h (3 Bft) 97,87 %
17.02.2019 05:32 4,2 C 3,9 C 3,3 C 88 % 1020,8 hPa 0,0 l/m 0 min 0 min 0 W/m 16,1 km/h (3 Bft) 95,92 %
17.02.2019 05:34 4,2 C 3,9 C 2,8 C 88 % 1020,9 hPa 0,0 l/m 0 min 0 min 0 W/m 6,4 km/h (2 Bft) 95,65 %
17.02.2019 05:36 4,2 C 3,9 C 2,8 C 88 % 1020,8 hPa 0,0 l/m 0 min 0 min 0 W/m 9,7 km/h (2 Bft) 98,31 %
17.02.2019 05:38 4,2 C 3,9 C 2,8 C 87 % 1020,8 hPa 0,0 l/m 0 min 0 min 0 W/m 12,9 km/h (3 Bft) 97,14 %
17.02.2019 05:40 4,2 C 3,9 C 2,8 C 87 % 1020,8 hPa 0,0 l/m 0 min 0 min 0 W/m 12,9 km/h (3 Bft) 97,87 %
17.02.2019 05:42 4,2 C 3,9 C 2,8 C 87 % 1020,8 hPa 0,0 l/m 0 min 0 min 0 W/m 9,7 km/h (2 Bft) 95,24 %
17.02.2019 05:44 4,2 C 3,9 C 2,8 C 87 % 1020,9 hPa 0,0 l/m 0 min 0 min 0 W/m 12,9 km/h (3 Bft) 97,96 %
17.02.2019 05:46 4,2 C 3,3 C 2,8 C 87 % 1020,8 hPa 0,0 l/m 0 min 0 min 0 W/m 6,4 km/h (2 Bft) 93,48 %
17.02.2019 05:48 4,2 C 3,3 C 2,8 C 87 % 1020,8 hPa 0,0 l/m 0 min 0 min 0 W/m 9,7 km/h (2 Bft) 97,96 %
17.02.2019 05:50 4,2 C 3,3 C 2,8 C 87 % 1020,8 hPa 0,0 l/m 0 min 0 min 0 W/m 9,7 km/h (2 Bft) 97,87 %
17.02.2019 05:52 4,2 C 3,3 C 2,8 C 87 % 1020,8 hPa 0,0 l/m 0 min 0 min 0 W/m 16,1 km/h (3 Bft) 95,74 %
17.02.2019 05:54 4,2 C 3,9 C 2,8 C 87 % 1020,8 hPa 0,0 l/m 0 min 0 min 0 W/m 12,9 km/h (3 Bft) 97,87 %
17.02.2019 05:56 4,2 C 3,9 C 2,8 C 87 % 1020,7 hPa 0,0 l/m 0 min 0 min 0 W/m 12,9 km/h (3 Bft) 95,74 %
17.02.2019 05:58 4,2 C 3,9 C 2,8 C 87 % 1020,7 hPa 0,0 l/m 0 min 0 min 0 W/m 16,1 km/h (3 Bft) 97,83 %
17.02.2019 06:00 4,2 C 3,9 C 2,8 C 87 % 1020,7 hPa 0,0 l/m 0 min 0 min 0 W/m 12,9 km/h (3 Bft) 97,87 %
17.02.2019 06:02 4,2 C 3,9 C 2,8 C 87 % 1020,7 hPa 0,0 l/m 0 min 0 min 0 W/m 12,9 km/h (3 Bft) 93,62 %
17.02.2019 06:04 4,2 C 3,9 C 2,8 C 88 % 1020,7 hPa 0,0 l/m 0 min 0 min 0 W/m 9,7 km/h (2 Bft) 100,00 %
17.02.2019 06:08 4,2 C 3,9 C 2,8 C 88 % 1020,7 hPa 0,0 l/m 0 min 0 min 0 W/m 16,1 km/h (3 Bft) 97,87 %
17.02.2019 06:10 4,2 C 3,9 C 2,8 C 88 % 1020,6 hPa 0,0 l/m 0 min 0 min 0 W/m 12,9 km/h (3 Bft) 100,00 %
17.02.2019 06:12 4,2 C 3,9 C 2,8 C 88 % 1020,6 hPa 0,0 l/m 0 min 0 min 0 W/m 12,9 km/h (3 Bft) 100,00 %
17.02.2019 06:14 4,2 C 3,9 C 2,8 C 88 % 1020,6 hPa 0,0 l/m 0 min 0 min 0 W/m 9,7 km/h (2 Bft) 97,87 %
17.02.2019 06:16 4,2 C 3,9 C 2,8 C 88 % 1020,6 hPa 0,0 l/m 0 min 0 min 0 W/m 9,7 km/h (2 Bft) 100,00 %
17.02.2019 06:18 4,2 C 3,9 C 2,8 C 88 % 1020,6 hPa 0,0 l/m 0 min 0 min 0 W/m 9,7 km/h (2 Bft) 100,00 %
17.02.2019 06:20 4,2 C 3,9 C 2,8 C 88 % 1020,7 hPa 0,0 l/m 0 min 0 min 0 W/m 9,7 km/h (2 Bft) 95,65 %
17.02.2019 06:22 4,2 C 3,9 C 2,8 C 88 % 1020,7 hPa 0,0 l/m 0 min 0 min 0 W/m 9,7 km/h (2 Bft) 100,00 %
17.02.2019 06:24 4,2 C 3,9 C 2,8 C 87 % 1020,7 hPa 0,0 l/m 0 min 0 min 0 W/m 9,7 km/h (2 Bft) 100,00 %
17.02.2019 06:26 4,3 C 3,9 C 2,8 C 87 % 1020,6 hPa 0,0 l/m 0 min 0 min 0 W/m 16,1 km/h (3 Bft) 100,00 %
17.02.2019 06:28 4,2 C 3,3 C 2,8 C 87 % 1020,7 hPa 0,0 l/m 0 min 0 min 0 W/m 9,7 km/h (2 Bft) 100,00 %
17.02.2019 06:30 4,2 C 3,3 C 2,8 C 87 % 1020,7 hPa 0,0 l/m 0 min 0 min 0 W/m 9,7 km/h (2 Bft) 100,00 %
17.02.2019 06:32 4,2 C 3,9 C 2,8 C 87 % 1020,7 hPa 0,0 l/m 0 min 0 min 0 W/m 9,7 km/h (2 Bft) 75,51 %
17.02.2019 06:34 4,2 C 3,9 C 2,8 C 87 % 1020,7 hPa 0,0 l/m 0 min 0 min 0 W/m 9,7 km/h (2 Bft) 75,00 %
17.02.2019 06:36 4,2 C 3,9 C 2,8 C 87 % 1020,6 hPa 0,0 l/m 0 min 0 min 0 W/m 16,1 km/h (3 Bft) 100,00 %
17.02.2019 06:38 4,2 C 3,9 C 2,8 C 87 % 1020,6 hPa 0,0 l/m 0 min 0 min 0 W/m 16,1 km/h (3 Bft) 100,00 %
17.02.2019 06:40 4,2 C 3,9 C 2,8 C 87 % 1020,6 hPa 0,0 l/m 0 min 0 min 0 W/m 9,7 km/h (2 Bft) 100,00 %
17.02.2019 06:42 4,2 C 3,9 C 2,8 C 88 % 1020,6 hPa 0,0 l/m 0 min 0 min 0 W/m 12,9 km/h (3 Bft) 100,00 %
17.02.2019 06:44 4,2 C 3,3 C 2,8 C 88 % 1020,6 hPa 0,0 l/m 0 min 0 min 0 W/m 9,7 km/h (2 Bft) 100,00 %
17.02.2019 06:46 4,2 C 3,3 C 2,8 C 87 % 1020,6 hPa 0,0 l/m 0 min 0 min 0 W/m 9,7 km/h (2 Bft) 100,00 %
17.02.2019 06:48 4,2 C 3,3 C 2,8 C 87 % 1020,6 hPa 0,0 l/m 0 min 0 min 0 W/m 9,7 km/h (2 Bft) 100,00 %
17.02.2019 06:50 4,2 C 3,3 C 2,8 C 87 % 1020,5 hPa 0,0 l/m 0 min 0 min 0 W/m 16,1 km/h (3 Bft) 100,00 %
17.02.2019 06:52 4,1 C 3,3 C 2,8 C 87 % 1020,4 hPa 0,0 l/m 0 min 0 min 0 W/m 9,7 km/h (2 Bft) 100,00 %
17.02.2019 06:54 4,1 C 3,3 C 2,8 C 87 % 1020,5 hPa 0,0 l/m 0 min 0 min 0 W/m 9,7 km/h (2 Bft) 95,65 %
17.02.2019 06:56 4,1 C 3,3 C 2,8 C 87 % 1020,5 hPa 0,0 l/m 0 min 0 min 0 W/m 9,7 km/h (2 Bft) 100,00 %
17.02.2019 06:58 4,1 C 3,3 C 2,8 C 87 % 1020,5 hPa 0,0 l/m 0 min 0 min 0 W/m 9,7 km/h (2 Bft) 100,00 %
17.02.2019 07:00 4,1 C 3,3 C 2,8 C 87 % 1020,6 hPa 0,0 l/m 0 min 0 min 0 W/m 9,7 km/h (2 Bft) 97,87 %
17.02.2019 07:02 4,1 C 3,3 C 2,8 C 87 % 1020,5 hPa 0,0 l/m 0 min 0 min 0 W/m 12,9 km/h (3 Bft) 97,87 %
17.02.2019 07:04 4,1 C 3,3 C 2,8 C 87 % 1020,5 hPa 0,0 l/m 0 min 0 min 0 W/m 9,7 km/h (2 Bft) 100,00 %
17.02.2019 07:06 4,1 C 3,3 C 2,8 C 88 % 1020,5 hPa 0,0 l/m 0 min 0 min 0 W/m 9,7 km/h (2 Bft) 98,21 %
17.02.2019 07:08 4,0 C 3,3 C 2,8 C 88 % 1020,4 hPa 0,0 l/m 0 min 0 min 0 W/m 12,9 km/h (3 Bft) 97,14 %
17.02.2019 07:10 4,1 C 3,3 C 2,8 C 88 % 1020,4 hPa 0,0 l/m 0 min 0 min 0 W/m 12,9 km/h (3 Bft) 97,87 %
17.02.2019 07:12 4,0 C 3,3 C 2,8 C 88 % 1020,4 hPa 0,0 l/m 0 min 0 min 0 W/m 12,9 km/h (3 Bft) 100,00 %
17.02.2019 07:14 4,0 C 3,3 C 2,8 C 88 % 1020,4 hPa 0,0 l/m 0 min 0 min 0 W/m 16,1 km/h (3 Bft) 97,87 %
17.02.2019 07:16 4,0 C 3,3 C 2,8 C 88 % 1020,4 hPa 0,0 l/m 0 min 0 min 0 W/m 12,9 km/h (3 Bft) 100,00 %
17.02.2019 07:18 4,0 C 3,3 C 2,8 C 88 % 1020,4 hPa 0,0 l/m 0 min 0 min 0 W/m 16,1 km/h (3 Bft) 95,65 %
17.02.2019 07:20 4,0 C 3,3 C 2,8 C 88 % 1020,4 hPa 0,0 l/m 0 min 0 min 0 W/m 12,9 km/h (3 Bft) 97,87 %
17.02.2019 07:22 4,0 C 3,3 C 2,8 C 88 % 1020,4 hPa 0,0 l/m 0 min 0 min 0 W/m 12,9 km/h (3 Bft) 95,83 %
17.02.2019 07:24 4,0 C 3,3 C 2,8 C 88 % 1020,4 hPa 0,0 l/m 0 min 0 min 0 W/m 9,7 km/h (2 Bft) 97,87 %
17.02.2019 07:26 4,0 C 3,3 C 2,8 C 88 % 1020,5 hPa 0,0 l/m 0 min 0 min 0 W/m 12,9 km/h (3 Bft) 97,87 %
17.02.2019 07:28 4,0 C 3,3 C 2,8 C 88 % 1020,4 hPa 0,0 l/m 0 min 0 min 0 W/m 12,9 km/h (3 Bft) 97,83 %
17.02.2019 07:30 4,1 C 3,3 C 2,8 C 88 % 1020,4 hPa 0,0 l/m 0 min 0 min 0 W/m 9,7 km/h (2 Bft) 97,87 %
17.02.2019 07:32 4,0 C 3,3 C 2,8 C 88 % 1020,4 hPa 0,0 l/m 0 min 0 min 0 W/m 12,9 km/h (3 Bft) 97,87 %
17.02.2019 07:34 4,1 C 3,3 C 2,8 C 88 % 1020,4 hPa 0,0 l/m 0 min 0 min 0 W/m 9,7 km/h (2 Bft) 97,87 %
17.02.2019 07:36 4,0 C 3,3 C 2,8 C 88 % 1020,4 hPa 0,0 l/m 0 min 0 min 5 W/m 12,9 km/h (3 Bft) 96,55 %
17.02.2019 07:38 4,0 C 3,3 C 2,8 C 88 % 1020,4 hPa 0,0 l/m 0 min 0 min 5 W/m 9,7 km/h (2 Bft) 100,00 %
17.02.2019 07:40 4,0 C 3,3 C 2,8 C 88 % 1020,4 hPa 0,0 l/m 0 min 0 min 1 W/m 19,3 km/h (3 Bft) 97,87 %
17.02.2019 07:42 4,0 C 3,3 C 2,8 C 88 % 1020,4 hPa 0,0 l/m 0 min 0 min 0 W/m 12,9 km/h (3 Bft) 95,65 %
17.02.2019 07:44 4,0 C 3,3 C 2,8 C 88 % 1020,3 hPa 0,0 l/m 0 min 0 min 0 W/m 22,5 km/h (4 Bft) 97,67 %
17.02.2019 07:46 4,0 C 3,3 C 2,8 C 88 % 1020,3 hPa 0,0 l/m 0 min 0 min 2 W/m 16,1 km/h (3 Bft) 95,74 %
17.02.2019 07:48 4,0 C 3,3 C 2,8 C 88 % 1020,4 hPa 0,0 l/m 0 min 0 min 5 W/m 16,1 km/h (3 Bft) 95,74 %
17.02.2019 07:50 4,0 C 3,3 C 2,8 C 88 % 1020,4 hPa 0,0 l/m 0 min 0 min 6 W/m 12,9 km/h (3 Bft) 97,87 %
17.02.2019 07:52 4,0 C 3,3 C 2,8 C 88 % 1020,5 hPa 0,0 l/m 0 min 0 min 7 W/m 16,1 km/h (3 Bft) 93,75 %
17.02.2019 07:54 4,0 C 3,3 C 2,8 C 88 % 1020,5 hPa 0,0 l/m 0 min 0 min 7 W/m 12,9 km/h (3 Bft) 95,92 %
17.02.2019 07:56 4,0 C 3,3 C 2,8 C 88 % 1020,4 hPa 0,0 l/m 0 min 0 min 9 W/m 12,9 km/h (3 Bft) 95,74 %
17.02.2019 07:58 4,0 C 3,3 C 2,8 C 88 % 1020,4 hPa 0,0 l/m 0 min 0 min 11 W/m 9,7 km/h (2 Bft) 97,87 %
17.02.2019 08:00 4,0 C 3,3 C 2,8 C 88 % 1020,5 hPa 0,0 l/m 0 min 0 min 12 W/m 9,7 km/h (2 Bft) 95,74 %
17.02.2019 08:02 3,9 C 3,3 C 2,8 C 88 % 1020,5 hPa 0,0 l/m 0 min 0 min 13 W/m 12,9 km/h (3 Bft) 95,12 %
17.02.2019 08:04 3,9 C 3,3 C 2,8 C 88 % 1020,5 hPa 0,0 l/m 0 min 0 min 15 W/m 9,7 km/h (2 Bft) 95,74 %
17.02.2019 08:06 3,9 C 3,3 C 2,8 C 88 % 1020,4 hPa 0,0 l/m 0 min 0 min 17 W/m 12,9 km/h (3 Bft) 91,80 %
17.02.2019 08:08 3,9 C 3,3 C 2,8 C 88 % 1020,5 hPa 0,0 l/m 0 min 0 min 19 W/m 12,9 km/h (3 Bft) 97,30 %
17.02.2019 08:10 3,9 C 3,3 C 2,8 C 88 % 1020,5 hPa 0,0 l/m 0 min 0 min 20 W/m 16,1 km/h (3 Bft) 95,83 %
17.02.2019 08:12 3,9 C 3,3 C 2,8 C 88 % 1020,6 hPa 0,0 l/m 0 min 0 min 22 W/m 16,1 km/h (3 Bft) 95,74 %
17.02.2019 08:14 3,9 C 3,3 C 2,8 C 89 % 1020,6 hPa 0,0 l/m 0 min 0 min 24 W/m 16,1 km/h (3 Bft) 95,74 %
17.02.2019 08:16 3,9 C 3,9 C 2,8 C 89 % 1020,4 hPa 0,0 l/m 0 min 0 min 26 W/m 16,1 km/h (3 Bft) 95,65 %
17.02.2019 08:18 3,9 C 3,9 C 2,8 C 89 % 1020,4 hPa 0,0 l/m 0 min 0 min 28 W/m 16,1 km/h (3 Bft) 95,74 %
17.02.2019 08:20 3,9 C 3,9 C 2,8 C 89 % 1020,4 hPa 0,0 l/m 0 min 0 min 31 W/m 16,1 km/h (3 Bft) 95,74 %
17.02.2019 08:22 3,9 C 3,9 C 2,8 C 89 % 1020,4 hPa 0,0 l/m 0 min 0 min 33 W/m 16,1 km/h (3 Bft) 93,62 %
17.02.2019 08:24 3,9 C 3,9 C 2,8 C 89 % 1020,5 hPa 0,0 l/m 0 min 0 min 35 W/m 16,1 km/h (3 Bft) 95,74 %
17.02.2019 08:26 4,0 C 3,9 C 3,3 C 89 % 1020,4 hPa 0,0 l/m 0 min 0 min 38 W/m 12,9 km/h (3 Bft) 91,30 %
17.02.2019 08:28 4,0 C 3,9 C 3,3 C 89 % 1020,5 hPa 0,0 l/m 0 min 0 min 41 W/m 9,7 km/h (2 Bft) 95,74 %
17.02.2019 08:30 4,0 C 3,9 C 3,3 C 89 % 1020,5 hPa 0,0 l/m 0 min 0 min 43 W/m 12,9 km/h (3 Bft) 95,74 %
17.02.2019 08:32 4,0 C 3,9 C 3,3 C 89 % 1020,5 hPa 0,0 l/m 0 min 0 min 46 W/m 19,3 km/h (3 Bft) 89,36 %
17.02.2019 08:34 4,0 C 3,9 C 3,3 C 89 % 1020,5 hPa 0,0 l/m 0 min 0 min 47 W/m 16,1 km/h (3 Bft) 95,74 %
17.02.2019 08:36 4,1 C 4,4 C 3,3 C 89 % 1020,5 hPa 0,0 l/m 0 min 0 min 48 W/m 12,9 km/h (3 Bft) 96,55 %
17.02.2019 08:38 4,1 C 4,4 C 3,3 C 89 % 1020,5 hPa 0,0 l/m 0 min 0 min 51 W/m 16,1 km/h (3 Bft) 97,14 %
17.02.2019 08:40 4,1 C 4,4 C 3,3 C 89 % 1020,4 hPa 0,0 l/m 0 min 0 min 53 W/m 16,1 km/h (3 Bft) 95,74 %
17.02.2019 08:42 4,2 C 4,4 C 3,3 C 89 % 1020,4 hPa 0,0 l/m 0 min 0 min 54 W/m 16,1 km/h (3 Bft) 95,74 %
17.02.2019 08:44 4,2 C 4,4 C 3,3 C 89 % 1020,5 hPa 0,0 l/m 0 min 0 min 56 W/m 16,1 km/h (3 Bft) 95,24 %
17.02.2019 08:46 4,2 C 4,4 C 3,3 C 89 % 1020,5 hPa 0,0 l/m 0 min 0 min 58 W/m 16,1 km/h (3 Bft) 93,62 %
17.02.2019 08:48 4,2 C 4,4 C 3,3 C 89 % 1020,4 hPa 0,0 l/m 0 min 0 min 60 W/m 12,9 km/h (3 Bft) 97,87 %
17.02.2019 08:50 4,2 C 4,4 C 3,3 C 89 % 1020,4 hPa 0,0 l/m 0 min 0 min 62 W/m 9,7 km/h (2 Bft) 95,74 %
17.02.2019 08:52 4,3 C 4,4 C 3,3 C 89 % 1020,4 hPa 0,0 l/m 0 min 0 min 62 W/m 9,7 km/h (2 Bft) 93,48 %
17.02.2019 08:54 4,3 C 4,4 C 3,9 C 89 % 1020,4 hPa 0,0 l/m 0 min 0 min 63 W/m 9,7 km/h (2 Bft) 97,96 %
17.02.2019 08:56 4,3 C 4,4 C 3,9 C 89 % 1020,4 hPa 0,0 l/m 0 min 0 min 66 W/m 12,9 km/h (3 Bft) 95,74 %
17.02.2019 08:58 4,3 C 5,0 C 3,9 C 89 % 1020,4 hPa 0,0 l/m 0 min 0 min 67 W/m 12,9 km/h (3 Bft) 95,74 %
17.02.2019 09:00 4,4 C 5,0 C 3,9 C 89 % 1020,4 hPa 0,0 l/m 0 min 0 min 68 W/m 19,3 km/h (3 Bft) 100,00 %
17.02.2019 09:02 4,4 C 5,0 C 3,9 C 89 % 1020,4 hPa 0,0 l/m 0 min 0 min 70 W/m 9,7 km/h (2 Bft) 100,00 %
17.02.2019 09:04 4,4 C 5,0 C 3,9 C 89 % 1020,4 hPa 0,0 l/m 0 min 0 min 72 W/m 16,1 km/h (3 Bft) 97,87 %
17.02.2019 09:06 4,5 C 5,0 C 3,9 C 89 % 1020,3 hPa 0,0 l/m 0 min 0 min 73 W/m 16,1 km/h (3 Bft) 96,61 %
17.02.2019 09:08 4,6 C 5,0 C 3,9 C 89 % 1020,4 hPa 0,0 l/m 0 min 0 min 75 W/m 12,9 km/h (3 Bft) 97,14 %
17.02.2019 09:10 4,6 C 5,0 C 4,4 C 89 % 1020,3 hPa 0,0 l/m 0 min 0 min 76 W/m 16,1 km/h (3 Bft) 100,00 %
17.02.2019 09:12 4,7 C 5,0 C 4,4 C 89 % 1020,4 hPa 0,0 l/m 0 min 0 min 77 W/m 12,9 km/h (3 Bft) 100,00 %
17.02.2019 09:14 4,7 C 5,0 C 4,4 C 89 % 1020,4 hPa 0,0 l/m 0 min 0 min 79 W/m 16,1 km/h (3 Bft) 100,00 %
17.02.2019 09:16 4,7 C 5,6 C 4,4 C 89 % 1020,3 hPa 0,0 l/m 0 min 0 min 81 W/m 12,9 km/h (3 Bft) 100,00 %
17.02.2019 09:18 4,8 C 5,6 C 4,4 C 89 % 1020,3 hPa 0,0 l/m 0 min 0 min 83 W/m 19,3 km/h (3 Bft) 100,00 %
17.02.2019 09:20 4,8 C 5,6 C 4,4 C 89 % 1020,3 hPa 0,0 l/m 0 min 0 min 85 W/m 22,5 km/h (4 Bft) 100,00 %
17.02.2019 09:22 4,9 C 5,6 C 4,4 C 89 % 1020,3 hPa 0,0 l/m 0 min 0 min 86 W/m 16,1 km/h (3 Bft) 100,00 %
17.02.2019 09:24 4,9 C 5,6 C 4,4 C 89 % 1020,3 hPa 0,0 l/m 0 min 0 min 91 W/m 16,1 km/h (3 Bft) 100,00 %
17.02.2019 09:26 5,0 C 6,1 C 4,4 C 88 % 1020,3 hPa 0,0 l/m 2 min 0 min 130 W/m 19,3 km/h (3 Bft) 100,00 %
17.02.2019 09:28 5,1 C 6,7 C 5,0 C 88 % 1020,3 hPa 0,0 l/m 2 min 0 min 167 W/m 16,1 km/h (3 Bft) 100,00 %
17.02.2019 09:30 5,2 C 7,2 C 5,0 C 88 % 1020,3 hPa 0,0 l/m 2 min 0 min 175 W/m 25,7 km/h (4 Bft) 100,00 %
17.02.2019 09:32 5,2 C 7,2 C 5,0 C 88 % 1020,2 hPa 0,0 l/m 2 min 0 min 175 W/m 19,3 km/h (3 Bft) 100,00 %
17.02.2019 09:34 5,3 C 7,8 C 5,0 C 88 % 1020,2 hPa 0,0 l/m 2 min 0 min 188 W/m 16,1 km/h (3 Bft) 97,87 %
17.02.2019 09:36 5,4 C 7,8 C 5,0 C 88 % 1020,2 hPa 0,0 l/m 2 min 0 min 196 W/m 16,1 km/h (3 Bft) 98,28 %
17.02.2019 09:38 5,5 C 8,3 C 5,0 C 88 % 1020,1 hPa 0,0 l/m 2 min 0 min 219 W/m 16,1 km/h (3 Bft) 97,22 %
17.02.2019 09:40 5,6 C 8,3 C 5,6 C 87 % 1020,1 hPa 0,0 l/m 2 min 0 min 222 W/m 12,9 km/h (3 Bft) 100,00 %
17.02.2019 09:42 5,7 C 8,3 C 5,6 C 87 % 1020,1 hPa 0,0 l/m 2 min 0 min 215 W/m 25,7 km/h (4 Bft) 97,87 %
17.02.2019 09:44 5,8 C 8,3 C 5,6 C 87 % 1020,1 hPa 0,0 l/m 2 min 0 min 218 W/m 12,9 km/h (3 Bft) 100,00 %
17.02.2019 09:46 5,9 C 8,9 C 6,1 C 87 % 1020,1 hPa 0,0 l/m 2 min 0 min 223 W/m 12,9 km/h (3 Bft) 95,74 %
17.02.2019 09:48 6,0 C 8,3 C 6,7 C 86 % 1020,1 hPa 0,0 l/m 2 min 0 min 225 W/m 19,3 km/h (3 Bft) 97,83 %
17.02.2019 09:50 6,1 C 8,3 C 7,2 C 86 % 1020,1 hPa 0,0 l/m 2 min 0 min 214 W/m 16,1 km/h (3 Bft) 97,87 %
17.02.2019 09:52 6,2 C 8,3 C 7,2 C 86 % 1020,0 hPa 0,0 l/m 2 min 0 min 202 W/m 19,3 km/h (3 Bft) 100,00 %
17.02.2019 09:54 6,3 C 8,3 C 7,2 C 85 % 1020,0 hPa 0,0 l/m 2 min 0 min 194 W/m 16,1 km/h (3 Bft) 97,87 %
17.02.2019 09:56 6,4 C 8,3 C 7,2 C 85 % 1020,0 hPa 0,0 l/m 2 min 0 min 208 W/m 12,9 km/h (3 Bft) 95,74 %
17.02.2019 09:58 6,4 C 8,9 C 7,8 C 85 % 1019,9 hPa 0,0 l/m 2 min 0 min 215 W/m 12,9 km/h (3 Bft) 97,87 %
17.02.2019 10:00 6,5 C 8,9 C 7,8 C 84 % 1020,0 hPa 0,0 l/m 2 min 0 min 213 W/m 9,7 km/h (2 Bft) 100,00 %
17.02.2019 10:02 6,6 C 8,9 C 7,8 C 84 % 1019,9 hPa 0,0 l/m 2 min 0 min 228 W/m 19,3 km/h (3 Bft) 97,87 %
17.02.2019 10:04 6,7 C 9,4 C 7,8 C 84 % 1019,9 hPa 0,0 l/m 2 min 0 min 234 W/m 12,9 km/h (3 Bft) 91,49 %
17.02.2019 10:06 6,8 C 9,4 C 7,8 C 84 % 1019,9 hPa 0,0 l/m 2 min 0 min 233 W/m 16,1 km/h (3 Bft) 95,74 %
17.02.2019 10:08 6,8 C 9,4 C 7,2 C 83 % 1020,0 hPa 0,0 l/m 2 min 0 min 247 W/m 16,1 km/h (3 Bft) 97,87 %
17.02.2019 10:10 6,9 C 10,0 C 7,2 C 84 % 1019,9 hPa 0,0 l/m 2 min 0 min 261 W/m 12,9 km/h (3 Bft) 97,87 %
17.02.2019 10:12 7,0 C 10,0 C 7,2 C 83 % 1019,9 hPa 0,0 l/m 2 min 0 min 261 W/m 22,5 km/h (4 Bft) 95,65 %
17.02.2019 10:14 7,1 C 10,0 C 7,2 C 83 % 1019,9 hPa 0,0 l/m 2 min 0 min 262 W/m 22,5 km/h (4 Bft) 97,87 %
17.02.2019 10:16 7,2 C 10,0 C 7,2 C 83 % 1019,9 hPa 0,0 l/m 2 min 0 min 261 W/m 16,1 km/h (3 Bft) 95,74 %
17.02.2019 10:18 7,3 C 10,0 C 7,2 C 82 % 1019,9 hPa 0,0 l/m 2 min 0 min 273 W/m 12,9 km/h (3 Bft) 97,87 %
17.02.2019 10:20 7,3 C 10,6 C 7,2 C 82 % 1019,9 hPa 0,0 l/m 2 min 0 min 268 W/m 12,9 km/h (3 Bft) 97,87 %
17.02.2019 10:22 7,4 C 10,6 C 7,2 C 82 % 1019,9 hPa 0,0 l/m 2 min 0 min 269 W/m 16,1 km/h (3 Bft) 97,87 %
17.02.2019 10:24 7,5 C 10,6 C 7,2 C 82 % 1019,8 hPa 0,0 l/m 2 min 0 min 266 W/m 12,9 km/h (3 Bft) 97,83 %
17.02.2019 10:26 7,6 C 10,6 C 7,2 C 82 % 1019,8 hPa 0,0 l/m 2 min 0 min 266 W/m 16,1 km/h (3 Bft) 97,87 %
17.02.2019 10:28 7,7 C 10,6 C 7,2 C 81 % 1019,8 hPa 0,0 l/m 2 min 0 min 273 W/m 16,1 km/h (3 Bft) 93,62 %
17.02.2019 10:30 7,7 C 10,6 C 7,2 C 81 % 1019,9 hPa 0,0 l/m 2 min 0 min 254 W/m 19,3 km/h (3 Bft) 95,74 %
17.02.2019 10:32 7,8 C 10,6 C 7,2 C 81 % 1019,8 hPa 0,0 l/m 2 min 0 min 243 W/m 22,5 km/h (4 Bft) 95,74 %
17.02.2019 10:34 7,9 C 10,6 C 7,2 C 80 % 1019,8 hPa 0,0 l/m 2 min 0 min 250 W/m 16,1 km/h (3 Bft) 95,74 %
17.02.2019 10:36 7,9 C 11,1 C 7,2 C 80 % 1019,8 hPa 0,0 l/m 2 min 0 min 267 W/m 19,3 km/h (3 Bft) 94,83 %
17.02.2019 10:38 8,1 C 11,1 C 7,2 C 80 % 1019,8 hPa 0,0 l/m 2 min 0 min 307 W/m 16,1 km/h (3 Bft) 94,29 %
17.02.2019 10:40 8,1 C 11,7 C 7,8 C 80 % 1019,8 hPa 0,0 l/m 2 min 0 min 319 W/m 16,1 km/h (3 Bft) 95,74 %
17.02.2019 10:42 8,2 C 11,7 C 7,8 C 79 % 1019,8 hPa 0,0 l/m 2 min 0 min 318 W/m 16,1 km/h (3 Bft) 93,62 %
17.02.2019 10:44 8,3 C 11,7 C 7,8 C 79 % 1019,8 hPa 0,0 l/m 2 min 0 min 300 W/m 16,1 km/h (3 Bft) 95,74 %
17.02.2019 10:46 8,4 C 11,7 C 7,8 C 79 % 1019,7 hPa 0,0 l/m 2 min 0 min 303 W/m 16,1 km/h (3 Bft) 95,65 %
17.02.2019 10:48 8,4 C 11,7 C 7,8 C 78 % 1019,8 hPa 0,0 l/m 2 min 0 min 316 W/m 22,5 km/h (4 Bft) 95,74 %
17.02.2019 10:50 8,6 C 11,7 C 7,8 C 78 % 1019,8 hPa 0,0 l/m 2 min 0 min 343 W/m 22,5 km/h (4 Bft) 91,49 %
17.02.2019 10:52 8,7 C 12,2 C 7,8 C 77 % 1019,7 hPa 0,0 l/m 2 min 0 min 376 W/m 19,3 km/h (3 Bft) 89,36 %
17.02.2019 10:54 8,7 C 12,8 C 8,3 C 77 % 1019,8 hPa 0,0 l/m 2 min 0 min 387 W/m 25,7 km/h (4 Bft) 93,62 %
17.02.2019 10:56 8,8 C 12,8 C 8,3 C 77 % 1019,7 hPa 0,0 l/m 2 min 0 min 389 W/m 16,1 km/h (3 Bft) 91,49 %
17.02.2019 10:58 8,9 C 13,3 C 8,3 C 77 % 1019,7 hPa 0,0 l/m 2 min 0 min 390 W/m 16,1 km/h (3 Bft) 91,30 %
17.02.2019 11:00 9,0 C 13,3 C 8,3 C 77 % 1019,7 hPa 0,0 l/m 2 min 0 min 397 W/m 22,5 km/h (4 Bft) 91,49 %
17.02.2019 11:02 9,2 C 12,8 C 8,3 C 76 % 1019,7 hPa 0,0 l/m 2 min 0 min 397 W/m 19,3 km/h (3 Bft) 89,36 %
17.02.2019 11:04 9,2 C 13,3 C 8,9 C 76 % 1019,6 hPa 0,0 l/m 2 min 0 min 404 W/m 19,3 km/h (3 Bft) 93,62 %
17.02.2019 11:06 9,3 C 13,9 C 8,9 C 76 % 1019,7 hPa 0,0 l/m 2 min 0 min 389 W/m 12,9 km/h (3 Bft) 93,10 %
17.02.2019 11:08 9,4 C 13,9 C 8,9 C 75 % 1019,7 hPa 0,0 l/m 2 min 0 min 392 W/m 22,5 km/h (4 Bft) 91,89 %
17.02.2019 11:10 9,6 C 13,3 C 8,9 C 75 % 1019,7 hPa 0,0 l/m 2 min 0 min 365 W/m 22,5 km/h (4 Bft) 91,30 %
17.02.2019 11:12 9,7 C 13,9 C 8,9 C 74 % 1019,7 hPa 0,0 l/m 2 min 0 min 360 W/m 16,1 km/h (3 Bft) 91,49 %
17.02.2019 11:14 9,7 C 13,3 C 8,9 C 74 % 1019,6 hPa 0,0 l/m 2 min 0 min 347 W/m 16,1 km/h (3 Bft) 82,98 %
17.02.2019 11:16 9,8 C 12,8 C 8,9 C 74 % 1019,7 hPa 0,0 l/m 2 min 0 min 370 W/m 16,1 km/h (3 Bft) 85,11 %
17.02.2019 11:18 9,9 C 13,3 C 8,9 C 74 % 1019,6 hPa 0,0 l/m 2 min 0 min 382 W/m 12,9 km/h (3 Bft) 76,60 %
17.02.2019 11:20 9,9 C 13,3 C 9,4 C 73 % 1019,6 hPa 0,0 l/m 2 min 0 min 406 W/m 16,1 km/h (3 Bft) 78,72 %
17.02.2019 11:22 10,1 C 13,9 C 9,4 C 74 % 1019,7 hPa 0,0 l/m 2 min 0 min 413 W/m 25,7 km/h (4 Bft) 80,43 %
17.02.2019 11:24 10,1 C 14,4 C 9,4 C 73 % 1019,7 hPa 0,0 l/m 2 min 0 min 410 W/m 19,3 km/h (3 Bft) 74,47 %
17.02.2019 11:26 10,2 C 14,4 C 9,4 C 73 % 1019,7 hPa 0,0 l/m 2 min 0 min 412 W/m 16,1 km/h (3 Bft) 68,09 %
17.02.2019 11:28 10,3 C 14,4 C 9,4 C 73 % 1019,7 hPa 0,0 l/m 2 min 0 min 397 W/m 16,1 km/h (3 Bft) 85,11 %
17.02.2019 11:30 10,3 C 15,0 C 10,0 C 73 % 1019,7 hPa 0,0 l/m 2 min 0 min 399 W/m 9,7 km/h (2 Bft) 74,47 %
17.02.2019 11:32 10,4 C 15,0 C 10,0 C 73 % 1019,7 hPa 0,0 l/m 2 min 0 min 398 W/m 19,3 km/h (3 Bft) 76,09 %
17.02.2019 11:34 10,6 C 14,4 C 10,0 C 72 % 1019,6 hPa 0,0 l/m 2 min 0 min 396 W/m 16,1 km/h (3 Bft) 76,60 %
17.02.2019 11:36 10,7 C 13,9 C 10,0 C 72 % 1019,6 hPa 0,0 l/m 2 min 0 min 397 W/m 22,5 km/h (4 Bft) 78,72 %
17.02.2019 11:38 10,7 C 14,4 C 10,0 C 72 % 1019,6 hPa 0,0 l/m 2 min 0 min 398 W/m 16,1 km/h (3 Bft) 78,72 %
17.02.2019 11:40 10,8 C 15,0 C 10,0 C 72 % 1019,6 hPa 0,0 l/m 2 min 0 min 415 W/m 9,7 km/h (2 Bft) 80,85 %
17.02.2019 11:42 10,9 C 15,6 C 10,0 C 71 % 1019,5 hPa 0,0 l/m 2 min 0 min 420 W/m 16,1 km/h (3 Bft) 78,72 %
17.02.2019 11:44 11,0 C 15,0 C 10,6 C 71 % 1019,5 hPa 0,0 l/m 2 min 0 min 396 W/m 16,1 km/h (3 Bft) 89,13 %
17.02.2019 11:46 11,1 C 15,6 C 10,6 C 70 % 1019,5 hPa 0,0 l/m 2 min 0 min 404 W/m 16,1 km/h (3 Bft) 87,23 %
17.02.2019 11:48 11,2 C 15,6 C 10,6 C 70 % 1019,5 hPa 0,0 l/m 2 min 0 min 420 W/m 25,7 km/h (4 Bft) 80,85 %
17.02.2019 11:50 11,3 C 15,0 C 10,6 C 69 % 1019,5 hPa 0,0 l/m 2 min 0 min 426 W/m 19,3 km/h (3 Bft) 95,74 %
17.02.2019 11:52 11,4 C 14,4 C 10,6 C 68 % 1019,5 hPa 0,0 l/m 2 min 0 min 398 W/m 22,5 km/h (4 Bft) 91,49 %
17.02.2019 11:54 11,4 C 15,0 C 10,6 C 68 % 1019,5 hPa 0,0 l/m 2 min 0 min 380 W/m 16,1 km/h (3 Bft) 89,36 %
17.02.2019 11:56 11,5 C 15,6 C 10,6 C 68 % 1019,5 hPa 0,0 l/m 2 min 0 min 430 W/m 19,3 km/h (3 Bft) 93,48 %
17.02.2019 11:58 11,6 C 15,6 C 10,6 C 67 % 1019,4 hPa 0,0 l/m 2 min 0 min 455 W/m 22,5 km/h (4 Bft) 97,87 %
17.02.2019 12:00 11,6 C 15,6 C 10,6 C 67 % 1019,4 hPa 0,0 l/m 2 min 0 min 466 W/m 16,1 km/h (3 Bft) 95,74 %
17.02.2019 12:02 11,7 C 16,1 C 10,6 C 67 % 1019,3 hPa 0,0 l/m 2 min 0 min 460 W/m 25,7 km/h (4 Bft) 93,62 %
17.02.2019 12:04 11,7 C 15,6 C 10,6 C 67 % 1019,3 hPa 0,0 l/m 2 min 0 min 471 W/m 22,5 km/h (4 Bft) 97,87 %
17.02.2019 12:07 11,8 C 15,6 C 11,1 C 66 % 1019,1 hPa 0,0 l/m 3 min 0 min 444 W/m 25,7 km/h (4 Bft) 95,71 %
17.02.2019 12:08 11,9 C 15,0 C 11,1 C 66 % 1019,1 hPa 0,0 l/m 1 min 0 min 420 W/m 22,5 km/h (4 Bft) 95,65 %
17.02.2019 12:10 11,9 C 15,0 C 11,1 C 65 % 1019,1 hPa 0,0 l/m 2 min 0 min 446 W/m 29,0 km/h (5 Bft) 93,62 %
17.02.2019 12:12 11,9 C 15,0 C 11,1 C 65 % 1019,1 hPa 0,0 l/m 2 min 0 min 470 W/m 25,7 km/h (4 Bft) 97,87 %
17.02.2019 12:14 12,0 C 15,0 C 11,1 C 65 % 1019,1 hPa 0,0 l/m 2 min 0 min 477 W/m 25,7 km/h (4 Bft) 97,87 %
17.02.2019 12:16 12,0 C 15,6 C 11,1 C 65 % 1019,1 hPa 0,0 l/m 2 min 0 min 464 W/m 19,3 km/h (3 Bft) 100,00 %
17.02.2019 12:18 12,1 C 16,1 C 11,1 C 65 % 1019,1 hPa 0,0 l/m 2 min 0 min 454 W/m 16,1 km/h (3 Bft) 100,00 %
17.02.2019 12:20 12,1 C 16,1 C 11,7 C 65 % 1019,0 hPa 0,0 l/m 2 min 0 min 444 W/m 22,5 km/h (4 Bft) 100,00 %
17.02.2019 12:22 12,2 C 16,1 C 11,7 C 65 % 1019,1 hPa 0,0 l/m 2 min 0 min 435 W/m 19,3 km/h (3 Bft) 100,00 %
17.02.2019 12:24 12,2 C 16,1 C 11,7 C 64 % 1019,1 hPa 0,0 l/m 2 min 0 min 425 W/m 12,9 km/h (3 Bft) 100,00 %
17.02.2019 12:26 12,3 C 15,6 C 11,7 C 64 % 1019,0 hPa 0,0 l/m 2 min 0 min 406 W/m 22,5 km/h (4 Bft) 100,00 %
17.02.2019 12:28 12,4 C 16,1 C 11,7 C 64 % 1019,0 hPa 0,0 l/m 2 min 0 min 420 W/m 16,1 km/h (3 Bft) 100,00 %
17.02.2019 12:30 12,5 C 16,1 C 12,2 C 64 % 1019,0 hPa 0,0 l/m 2 min 0 min 426 W/m 22,5 km/h (4 Bft) 97,87 %
17.02.2019 12:32 12,6 C 16,1 C 12,2 C 63 % 1019,0 hPa 0,0 l/m 2 min 0 min 428 W/m 22,5 km/h (4 Bft) 100,00 %
17.02.2019 12:34 12,6 C 16,1 C 12,8 C 63 % 1018,9 hPa 0,0 l/m 2 min 0 min 421 W/m 16,1 km/h (3 Bft) 100,00 %
17.02.2019 12:36 12,7 C 16,1 C 13,9 C 63 % 1019,0 hPa 0,0 l/m 2 min 0 min 417 W/m 22,5 km/h (4 Bft) 95,74 %
17.02.2019 12:38 12,7 C 15,6 C 14,4 C 62 % 1019,0 hPa 0,0 l/m 2 min 0 min 423 W/m 22,5 km/h (4 Bft) 100,00 %
17.02.2019 12:40 12,7 C 16,1 C 15,6 C 62 % 1018,9 hPa 0,0 l/m 2 min 0 min 423 W/m 22,5 km/h (4 Bft) 100,00 %
17.02.2019 12:42 12,8 C 16,1 C 16,1 C 62 % 1018,9 hPa 0,0 l/m 2 min 0 min 460 W/m 22,5 km/h (4 Bft) 97,83 %
17.02.2019 12:44 12,8 C 16,1 C 16,1 C 62 % 1018,9 hPa 0,0 l/m 2 min 0 min 476 W/m 29,0 km/h (5 Bft) 100,00 %
17.02.2019 12:46 12,8 C 16,7 C 17,2 C 62 % 1018,8 hPa 0,0 l/m 2 min 0 min 495 W/m 19,3 km/h (3 Bft) 97,87 %
17.02.2019 12:48 12,9 C 16,7 C 17,2 C 62 % 1018,7 hPa 0,0 l/m 2 min 0 min 486 W/m 29,0 km/h (5 Bft) 95,74 %
17.02.2019 12:50 13,0 C 17,2 C 17,8 C 62 % 1018,8 hPa 0,0 l/m 2 min 0 min 479 W/m 16,1 km/h (3 Bft) 97,87 %
17.02.2019 12:52 13,1 C 17,2 C 17,8 C 62 % 1018,8 hPa 0,0 l/m 2 min 0 min 485 W/m 19,3 km/h (3 Bft) 97,87 %
17.02.2019 12:54 13,2 C 17,2 C 17,8 C 62 % 1018,7 hPa 0,0 l/m 2 min 0 min 473 W/m 19,3 km/h (3 Bft) 95,65 %
17.02.2019 12:56 13,2 C 17,2 C 17,8 C 61 % 1018,8 hPa 0,0 l/m 2 min 0 min 484 W/m 19,3 km/h (3 Bft) 97,87 %
17.02.2019 12:58 13,3 C 17,2 C 18,3 C 61 % 1018,7 hPa 0,0 l/m 2 min 0 min 496 W/m 25,7 km/h (4 Bft) 97,87 %
17.02.2019 13:00 13,4 C 17,8 C 18,3 C 61 % 1018,7 hPa 0,0 l/m 2 min 0 min 485 W/m 19,3 km/h (3 Bft) 97,87 %
17.02.2019 13:02 13,5 C 17,8 C 17,8 C 60 % 1018,7 hPa 0,0 l/m 2 min 0 min 479 W/m 19,3 km/h (3 Bft) 95,74 %
17.02.2019 13:04 13,6 C 17,8 C 17,8 C 60 % 1018,7 hPa 0,0 l/m 2 min 0 min 489 W/m 12,9 km/h (3 Bft) 97,87 %
17.02.2019 13:06 13,7 C 17,8 C 16,7 C 60 % 1018,8 hPa 0,0 l/m 2 min 0 min 483 W/m 22,5 km/h (4 Bft) 97,83 %
17.02.2019 13:08 13,7 C 17,2 C 16,1 C 59 % 1018,7 hPa 0,0 l/m 2 min 0 min 483 W/m 25,7 km/h (4 Bft) 97,92 %
17.02.2019 13:10 13,8 C 17,2 C 16,7 C 59 % 1018,7 hPa 0,0 l/m 2 min 0 min 489 W/m 22,5 km/h (4 Bft) 95,74 %
17.02.2019 13:12 13,8 C 17,8 C 16,1 C 59 % 1018,6 hPa 0,0 l/m 2 min 0 min 508 W/m 22,5 km/h (4 Bft) 97,87 %
17.02.2019 13:14 13,9 C 18,3 C 16,1 C 59 % 1018,5 hPa 0,0 l/m 2 min 0 min 498 W/m 22,5 km/h (4 Bft) 93,62 %
17.02.2019 13:16 14,0 C 18,9 C 16,1 C 60 % 1018,5 hPa 0,0 l/m 2 min 0 min 491 W/m 16,1 km/h (3 Bft) 97,87 %
17.02.2019 13:18 14,1 C 20,0 C 17,8 C 60 % 1018,6 hPa 0,0 l/m 2 min 0 min 483 W/m 9,7 km/h (2 Bft) 95,65 %
17.02.2019 13:20 14,2 C 19,4 C 17,8 C 60 % 1018,5 hPa 0,0 l/m 2 min 0 min 502 W/m 16,1 km/h (3 Bft) 95,74 %
17.02.2019 13:22 14,2 C 19,4 C 16,7 C 59 % 1018,5 hPa 0,0 l/m 2 min 0 min 472 W/m 19,3 km/h (3 Bft) 97,87 %
17.02.2019 13:24 14,2 C 20,0 C 16,7 C 60 % 1018,5 hPa 0,0 l/m 2 min 0 min 495 W/m 12,9 km/h (3 Bft) 97,87 %
17.02.2019 13:26 14,4 C 18,9 C 15,6 C 59 % 1018,4 hPa 0,0 l/m 2 min 0 min 453 W/m 22,5 km/h (4 Bft) 97,87 %
17.02.2019 13:28 14,4 C 18,9 C 15,6 C 59 % 1018,4 hPa 0,0 l/m 2 min 0 min 483 W/m 12,9 km/h (3 Bft) 100,00 %
17.02.2019 13:30 14,6 C 18,9 C 15,6 C 58 % 1018,3 hPa 0,0 l/m 2 min 0 min 487 W/m 25,7 km/h (4 Bft) 100,00 %
17.02.2019 13:32 14,7 C 18,9 C 15,0 C 58 % 1018,3 hPa 0,0 l/m 2 min 0 min 468 W/m 22,5 km/h (4 Bft) 100,00 %
17.02.2019 13:34 14,7 C 18,9 C 15,0 C 58 % 1018,3 hPa 0,0 l/m 2 min 0 min 465 W/m 16,1 km/h (3 Bft) 97,87 %
17.02.2019 13:36 14,8 C 18,9 C 14,4 C 58 % 1018,3 hPa 0,0 l/m 2 min 0 min 473 W/m 22,5 km/h (4 Bft) 95,74 %
17.02.2019 13:38 14,8 C 19,4 C 14,4 C 58 % 1018,3 hPa 0,0 l/m 2 min 0 min 485 W/m 16,1 km/h (3 Bft) 97,87 %
17.02.2019 13:40 14,9 C 18,9 C 14,4 C 58 % 1018,3 hPa 0,0 l/m 2 min 0 min 484 W/m 22,5 km/h (4 Bft) 97,87 %
17.02.2019 13:42 14,9 C 18,9 C 13,9 C 57 % 1018,3 hPa 0,0 l/m 2 min 0 min 477 W/m 25,7 km/h (4 Bft) 95,65 %
17.02.2019 13:44 15,0 C 18,3 C 13,9 C 57 % 1018,3 hPa 0,0 l/m 2 min 0 min 480 W/m 22,5 km/h (4 Bft) 97,87 %
17.02.2019 13:46 15,0 C 18,3 C 13,9 C 57 % 1018,3 hPa 0,0 l/m 2 min 0 min 455 W/m 19,3 km/h (3 Bft) 97,87 %
17.02.2019 13:48 15,0 C 18,3 C 13,9 C 57 % 1018,3 hPa 0,0 l/m 2 min 0 min 433 W/m 19,3 km/h (3 Bft) 97,87 %
17.02.2019 13:50 15,1 C 18,3 C 13,9 C 57 % 1018,2 hPa 0,0 l/m 2 min 0 min 426 W/m 22,5 km/h (4 Bft) 97,87 %
17.02.2019 13:52 15,1 C 17,8 C 13,9 C 57 % 1018,3 hPa 0,0 l/m 2 min 0 min 421 W/m 29,0 km/h (5 Bft) 95,74 %
17.02.2019 13:54 15,0 C 17,8 C 13,9 C 57 % 1018,3 hPa 0,0 l/m 2 min 0 min 438 W/m 19,3 km/h (3 Bft) 97,83 %
17.02.2019 13:56 15,0 C 17,8 C 13,9 C 57 % 1018,1 hPa 0,0 l/m 2 min 0 min 449 W/m 32,2 km/h (5 Bft) 97,87 %
17.02.2019 13:58 15,0 C 17,8 C 13,9 C 57 % 1018,1 hPa 0,0 l/m 2 min 0 min 431 W/m 22,5 km/h (4 Bft) 95,74 %
17.02.2019 14:00 14,9 C 17,8 C 13,9 C 57 % 1018,1 hPa 0,0 l/m 2 min 0 min 407 W/m 22,5 km/h (4 Bft) 97,87 %
17.02.2019 14:02 14,9 C 18,3 C 13,9 C 57 % 1018,1 hPa 0,0 l/m 2 min 0 min 441 W/m 25,7 km/h (4 Bft) 97,87 %
17.02.2019 14:04 15,0 C 18,9 C 14,4 C 58 % 1018,0 hPa 0,0 l/m 2 min 0 min 470 W/m 19,3 km/h (3 Bft) 95,65 %
17.02.2019 14:06 15,0 C 18,9 C 14,4 C 57 % 1018,0 hPa 0,0 l/m 2 min 0 min 451 W/m 22,5 km/h (4 Bft) 97,87 %
17.02.2019 14:08 15,0 C 18,9 C 14,4 C 57 % 1018,0 hPa 0,0 l/m 2 min 0 min 450 W/m 29,0 km/h (5 Bft) 97,87 %
17.02.2019 14:10 15,1 C 18,3 C 14,4 C 58 % 1017,9 hPa 0,0 l/m 2 min 0 min 447 W/m 22,5 km/h (4 Bft) 97,87 %
17.02.2019 14:12 15,1 C 18,3 C 14,4 C 58 % 1017,9 hPa 0,0 l/m 2 min 0 min 445 W/m 22,5 km/h (4 Bft) 95,74 %
17.02.2019 14:14 15,1 C 18,3 C 13,9 C 57 % 1017,8 hPa 0,0 l/m 2 min 0 min 458 W/m 22,5 km/h (4 Bft) 97,87 %
17.02.2019 14:16 15,1 C 17,8 C 14,4 C 57 % 1017,9 hPa 0,0 l/m 2 min 0 min 439 W/m 25,7 km/h (4 Bft) 97,83 %
17.02.2019 14:18 15,1 C 18,9 C 14,4 C 57 % 1017,9 hPa 0,0 l/m 2 min 0 min 454 W/m 19,3 km/h (3 Bft) 97,87 %
17.02.2019 14:20 15,2 C 18,3 C 14,4 C 56 % 1017,8 hPa 0,0 l/m 2 min 0 min 457 W/m 25,7 km/h (4 Bft) 95,74 %
17.02.2019 14:22 15,2 C 18,3 C 15,0 C 56 % 1017,8 hPa 0,0 l/m 2 min 0 min 438 W/m 29,0 km/h (5 Bft) 100,00 %
17.02.2019 14:24 15,2 C 18,9 C 15,0 C 56 % 1017,7 hPa 0,0 l/m 2 min 0 min 437 W/m 22,5 km/h (4 Bft) 100,00 %
17.02.2019 14:26 15,2 C 18,9 C 15,0 C 56 % 1017,6 hPa 0,0 l/m 2 min 0 min 406 W/m 19,3 km/h (3 Bft) 97,87 %
17.02.2019 14:28 15,3 C 18,9 C 15,0 C 57 % 1017,7 hPa 0,0 l/m 2 min 0 min 420 W/m 19,3 km/h (3 Bft) 97,83 %
17.02.2019 14:30 15,3 C 19,4 C 15,0 C 56 % 1017,7 hPa 0,0 l/m 2 min 0 min 429 W/m 12,9 km/h (3 Bft) 100,00 %
17.02.2019 14:32 15,4 C 19,4 C 15,0 C 56 % 1017,7 hPa 0,0 l/m 2 min 0 min 431 W/m 16,1 km/h (3 Bft) 100,00 %
17.02.2019 14:34 15,4 C 18,9 C 15,0 C 56 % 1017,7 hPa 0,0 l/m 2 min 0 min 423 W/m 22,5 km/h (4 Bft) 100,00 %
17.02.2019 14:36 15,5 C 18,9 C 15,0 C 55 % 1017,6 hPa 0,0 l/m 2 min 0 min 420 W/m 22,5 km/h (4 Bft) 100,00 %
17.02.2019 14:38 15,6 C 19,4 C 15,0 C 56 % 1017,7 hPa 0,0 l/m 2 min 0 min 428 W/m 19,3 km/h (3 Bft) 95,74 %
17.02.2019 14:40 15,6 C 20,0 C 15,0 C 55 % 1017,6 hPa 0,0 l/m 2 min 0 min 427 W/m 16,1 km/h (3 Bft) 100,00 %
17.02.2019 14:42 15,7 C 19,4 C 15,0 C 55 % 1017,6 hPa 0,0 l/m 2 min 0 min 421 W/m 22,5 km/h (4 Bft) 97,87 %
17.02.2019 14:44 15,7 C 19,4 C 15,0 C 55 % 1017,5 hPa 0,0 l/m 2 min 0 min 429 W/m 29,0 km/h (5 Bft) 97,87 %
17.02.2019 14:46 15,7 C 19,4 C 15,0 C 55 % 1017,5 hPa 0,0 l/m 2 min 0 min 432 W/m 19,3 km/h (3 Bft) 97,87 %
17.02.2019 14:48 15,8 C 19,4 C 15,0 C 55 % 1017,4 hPa 0,0 l/m 2 min 0 min 415 W/m 16,1 km/h (3 Bft) 97,87 %
17.02.2019 14:50 15,9 C 20,0 C 15,0 C 55 % 1017,4 hPa 0,0 l/m 2 min 0 min 411 W/m 19,3 km/h (3 Bft) 100,00 %
17.02.2019 14:52 15,9 C 20,0 C 15,0 C 55 % 1017,4 hPa 0,0 l/m 2 min 0 min 398 W/m 22,5 km/h (4 Bft) 97,83 %
17.02.2019 14:54 16,0 C 20,0 C 15,0 C 54 % 1017,4 hPa 0,0 l/m 2 min 0 min 403 W/m 25,7 km/h (4 Bft) 97,87 %
17.02.2019 14:56 16,1 C 19,4 C 15,0 C 54 % 1017,4 hPa 0,0 l/m 2 min 0 min 385 W/m 16,1 km/h (3 Bft) 100,00 %
17.02.2019 14:58 16,1 C 19,4 C 15,0 C 54 % 1017,4 hPa 0,0 l/m 2 min 0 min 347 W/m 16,1 km/h (3 Bft) 95,74 %
17.02.2019 15:00 16,1 C 19,4 C 15,0 C 54 % 1017,3 hPa 0,0 l/m 2 min 0 min 362 W/m 12,9 km/h (3 Bft) 97,87 %
17.02.2019 15:02 16,2 C 19,4 C 15,0 C 54 % 1017,4 hPa 0,0 l/m 2 min 0 min 366 W/m 22,5 km/h (4 Bft) 95,74 %
17.02.2019 15:04 16,2 C 19,4 C 15,0 C 54 % 1017,3 hPa 0,0 l/m 2 min 0 min 377 W/m 25,7 km/h (4 Bft) 97,83 %
17.02.2019 15:06 16,3 C 18,9 C 15,0 C 53 % 1017,3 hPa 0,0 l/m 2 min 0 min 343 W/m 22,5 km/h (4 Bft) 97,87 %
17.02.2019 15:08 16,3 C 18,9 C 15,0 C 54 % 1017,3 hPa 0,0 l/m 2 min 0 min 316 W/m 22,5 km/h (4 Bft) 97,87 %
17.02.2019 15:10 16,3 C 19,4 C 15,0 C 54 % 1017,2 hPa 0,0 l/m 2 min 0 min 314 W/m 19,3 km/h (3 Bft) 97,87 %
17.02.2019 15:12 16,3 C 18,9 C 15,0 C 53 % 1017,2 hPa 0,0 l/m 2 min 0 min 344 W/m 16,1 km/h (3 Bft) 97,87 %
17.02.2019 15:14 16,3 C 18,9 C 15,0 C 53 % 1017,2 hPa 0,0 l/m 2 min 0 min 364 W/m 16,1 km/h (3 Bft) 97,83 %
17.02.2019 15:16 16,3 C 19,4 C 15,0 C 54 % 1017,2 hPa 0,0 l/m 2 min 0 min 371 W/m 22,5 km/h (4 Bft) 91,49 %
17.02.2019 15:18 16,3 C 19,4 C 15,0 C 53 % 1017,2 hPa 0,0 l/m 2 min 0 min 357 W/m 22,5 km/h (4 Bft) 95,74 %
17.02.2019 15:20 16,3 C 19,4 C 15,0 C 53 % 1017,2 hPa 0,0 l/m 2 min 0 min 339 W/m 16,1 km/h (3 Bft) 95,74 %
17.02.2019 15:22 16,4 C 19,4 C 15,0 C 54 % 1017,2 hPa 0,0 l/m 2 min 0 min 357 W/m 12,9 km/h (3 Bft) 89,36 %
17.02.2019 15:24 16,4 C 19,4 C 15,0 C 54 % 1017,2 hPa 0,0 l/m 2 min 0 min 322 W/m 16,1 km/h (3 Bft) 95,74 %
17.02.2019 15:26 16,4 C 19,4 C 15,0 C 54 % 1017,1 hPa 0,0 l/m 2 min 0 min 292 W/m 12,9 km/h (3 Bft) 95,65 %
17.02.2019 15:28 16,4 C 20,0 C 15,0 C 54 % 1017,2 hPa 0,0 l/m 2 min 0 min 320 W/m 12,9 km/h (3 Bft) 97,87 %
17.02.2019 15:30 16,4 C 19,4 C 15,0 C 54 % 1017,2 hPa 0,0 l/m 2 min 0 min 325 W/m 9,7 km/h (2 Bft) 95,74 %
17.02.2019 15:32 16,5 C 19,4 C 15,0 C 54 % 1017,1 hPa 0,0 l/m 2 min 0 min 312 W/m 19,3 km/h (3 Bft) 95,74 %
17.02.2019 15:34 16,5 C 18,9 C 15,0 C 54 % 1017,1 hPa 0,0 l/m 2 min 0 min 306 W/m 12,9 km/h (3 Bft) 95,74 %
17.02.2019 15:36 16,5 C 18,9 C 15,0 C 54 % 1017,1 hPa 0,0 l/m 2 min 0 min 302 W/m 16,1 km/h (3 Bft) 95,74 %
17.02.2019 15:38 16,5 C 18,9 C 15,0 C 53 % 1017,1 hPa 0,0 l/m 2 min 0 min 294 W/m 16,1 km/h (3 Bft) 95,65 %
17.02.2019 15:40 16,5 C 18,9 C 15,0 C 54 % 1017,1 hPa 0,0 l/m 2 min 0 min 288 W/m 19,3 km/h (3 Bft) 93,62 %
17.02.2019 15:42 16,5 C 18,9 C 15,0 C 53 % 1017,1 hPa 0,0 l/m 2 min 0 min 292 W/m 19,3 km/h (3 Bft) 93,62 %
17.02.2019 15:44 16,5 C 18,9 C 15,0 C 53 % 1017,2 hPa 0,0 l/m 2 min 0 min 286 W/m 16,1 km/h (3 Bft) 95,74 %
17.02.2019 15:46 16,5 C 18,9 C 15,0 C 53 % 1017,1 hPa 0,0 l/m 2 min 0 min 275 W/m 16,1 km/h (3 Bft) 95,74 %
17.02.2019 15:48 16,5 C 18,9 C 15,0 C 52 % 1017,1 hPa 0,0 l/m 2 min 0 min 279 W/m 19,3 km/h (3 Bft) 93,62 %
17.02.2019 15:50 16,5 C 18,9 C 15,0 C 52 % 1017,1 hPa 0,0 l/m 2 min 0 min 278 W/m 12,9 km/h (3 Bft) 95,65 %
17.02.2019 15:52 16,5 C 18,9 C 15,0 C 52 % 1017,1 hPa 0,0 l/m 2 min 0 min 261 W/m 9,7 km/h (2 Bft) 93,62 %
17.02.2019 15:54 16,5 C 18,9 C 14,4 C 52 % 1017,2 hPa 0,0 l/m 2 min 0 min 243 W/m 12,9 km/h (3 Bft) 97,87 %
17.02.2019 15:56 16,5 C 18,9 C 14,4 C 52 % 1017,2 hPa 0,0 l/m 2 min 0 min 255 W/m 9,7 km/h (2 Bft) 95,74 %
17.02.2019 15:58 16,5 C 18,3 C 15,0 C 52 % 1017,2 hPa 0,0 l/m 2 min 0 min 246 W/m 16,1 km/h (3 Bft) 97,87 %
17.02.2019 16:00 16,5 C 18,3 C 15,0 C 53 % 1017,2 hPa 0,0 l/m 2 min 0 min 236 W/m 9,7 km/h (2 Bft) 100,00 %
17.02.2019 16:02 16,5 C 18,3 C 15,0 C 53 % 1017,2 hPa 0,0 l/m 2 min 0 min 240 W/m 12,9 km/h (3 Bft) 100,00 %
17.02.2019 16:04 16,4 C 18,3 C 14,4 C 52 % 1017,2 hPa 0,0 l/m 2 min 0 min 244 W/m 12,9 km/h (3 Bft) 100,00 %
17.02.2019 16:06 16,4 C 18,3 C 14,4 C 52 % 1017,2 hPa 0,0 l/m 2 min 0 min 234 W/m 19,3 km/h (3 Bft) 97,87 %
17.02.2019 16:08 16,4 C 18,3 C 14,4 C 52 % 1017,1 hPa 0,0 l/m 2 min 0 min 218 W/m 12,9 km/h (3 Bft) 100,00 %
17.02.2019 16:10 16,4 C 18,3 C 14,4 C 52 % 1017,2 hPa 0,0 l/m 2 min 0 min 206 W/m 16,1 km/h (3 Bft) 100,00 %
17.02.2019 16:12 16,4 C 18,3 C 14,4 C 52 % 1017,2 hPa 0,0 l/m 2 min 0 min 212 W/m 12,9 km/h (3 Bft) 100,00 %
17.02.2019 16:14 16,4 C 18,3 C 14,4 C 52 % 1017,2 hPa 0,0 l/m 2 min 0 min 217 W/m 16,1 km/h (3 Bft) 97,83 %
17.02.2019 16:16 16,4 C 18,3 C 14,4 C 52 % 1017,2 hPa 0,0 l/m 2 min 0 min 211 W/m 16,1 km/h (3 Bft) 97,87 %
17.02.2019 16:18 16,4 C 17,8 C 14,4 C 51 % 1017,2 hPa 0,0 l/m 2 min 0 min 199 W/m 12,9 km/h (3 Bft) 97,87 %
17.02.2019 16:20 16,4 C 17,2 C 14,4 C 51 % 1017,2 hPa 0,0 l/m 2 min 0 min 173 W/m 16,1 km/h (3 Bft) 95,74 %
17.02.2019 16:22 16,3 C 16,1 C 14,4 C 51 % 1017,2 hPa 0,0 l/m 2 min 0 min 125 W/m 16,1 km/h (3 Bft) 95,74 %
17.02.2019 16:24 16,3 C 15,6 C 14,4 C 51 % 1017,2 hPa 0,0 l/m 0 min 0 min 77 W/m 16,1 km/h (3 Bft) 95,65 %
17.02.2019 16:26 16,2 C 15,6 C 14,4 C 52 % 1017,2 hPa 0,0 l/m 0 min 0 min 68 W/m 16,1 km/h (3 Bft) 93,62 %
17.02.2019 16:28 16,2 C 15,6 C 14,4 C 52 % 1017,1 hPa 0,0 l/m 0 min 0 min 66 W/m 19,3 km/h (3 Bft) 97,87 %
17.02.2019 16:30 16,2 C 15,6 C 13,9 C 52 % 1017,1 hPa 0,0 l/m 0 min 0 min 64 W/m 12,9 km/h (3 Bft) 95,74 %
17.02.2019 16:32 16,1 C 15,0 C 13,9 C 53 % 1017,1 hPa 0,0 l/m 0 min 0 min 62 W/m 9,7 km/h (2 Bft) 97,87 %
17.02.2019 16:34 16,1 C 15,0 C 13,9 C 53 % 1017,1 hPa 0,0 l/m 0 min 0 min 59 W/m 9,7 km/h (2 Bft) 97,87 %
17.02.2019 16:36 16,0 C 15,0 C 13,9 C 53 % 1017,1 hPa 0,0 l/m 0 min 0 min 57 W/m 9,7 km/h (2 Bft) 97,87 %
17.02.2019 16:38 16,0 C 15,0 C 13,9 C 53 % 1017,1 hPa 0,0 l/m 0 min 0 min 56 W/m 9,7 km/h (2 Bft) 97,83 %
17.02.2019 16:40 15,9 C 15,0 C 13,9 C 54 % 1017,1 hPa 0,0 l/m 0 min 0 min 55 W/m 12,9 km/h (3 Bft) 97,87 %
17.02.2019 16:42 15,9 C 15,0 C 13,9 C 54 % 1017,1 hPa 0,0 l/m 0 min 0 min 54 W/m 12,9 km/h (3 Bft) 97,87 %
17.02.2019 16:44 15,9 C 15,6 C 13,9 C 54 % 1017,0 hPa 0,0 l/m 0 min 0 min 52 W/m 12,9 km/h (3 Bft) 95,74 %
17.02.2019 16:46 15,8 C 15,0 C 13,9 C 53 % 1017,0 hPa 0,0 l/m 0 min 0 min 50 W/m 12,9 km/h (3 Bft) 95,74 %
17.02.2019 16:48 15,8 C 15,0 C 13,9 C 54 % 1017,0 hPa 0,0 l/m 0 min 0 min 48 W/m 6,4 km/h (2 Bft) 97,83 %
17.02.2019 16:50 15,8 C 15,0 C 13,9 C 54 % 1017,0 hPa 0,0 l/m 0 min 0 min 46 W/m 6,4 km/h (2 Bft) 95,74 %
17.02.2019 16:52 15,7 C 15,0 C 13,9 C 54 % 1017,0 hPa 0,0 l/m 0 min 0 min 43 W/m 6,4 km/h (2 Bft) 97,87 %
17.02.2019 16:54 15,7 C 15,0 C 13,3 C 54 % 1017,0 hPa 0,0 l/m 0 min 0 min 42 W/m 9,7 km/h (2 Bft) 97,87 %
17.02.2019 16:56 15,7 C 15,0 C 13,3 C 55 % 1016,9 hPa 0,0 l/m 0 min 0 min 40 W/m 6,4 km/h (2 Bft) 97,87 %
17.02.2019 16:58 15,7 C 14,4 C 13,3 C 55 % 1016,9 hPa 0,0 l/m 0 min 0 min 39 W/m 6,4 km/h (2 Bft) 97,87 %
17.02.2019 17:00 15,6 C 14,4 C 12,8 C 55 % 1017,0 hPa 0,0 l/m 0 min 0 min 37 W/m 6,4 km/h (2 Bft) 97,83 %
17.02.2019 17:02 15,6 C 14,4 C 12,8 C 56 % 1016,9 hPa 0,0 l/m 0 min 0 min 35 W/m 6,4 km/h (2 Bft) 95,74 %
17.02.2019 17:04 15,6 C 14,4 C 12,8 C 56 % 1016,8 hPa 0,0 l/m 0 min 0 min 33 W/m 6,4 km/h (2 Bft) 97,87 %
17.02.2019 17:06 15,5 C 14,4 C 12,8 C 56 % 1016,8 hPa 0,0 l/m 0 min 0 min 32 W/m 9,7 km/h (2 Bft) 97,87 %
17.02.2019 17:08 15,4 C 14,4 C 12,8 C 56 % 1016,8 hPa 0,0 l/m 0 min 0 min 32 W/m 9,7 km/h (2 Bft) 95,74 %
17.02.2019 17:10 15,4 C 14,4 C 12,8 C 56 % 1016,9 hPa 0,0 l/m 0 min 0 min 30 W/m 6,4 km/h (2 Bft) 100,00 %
17.02.2019 17:12 15,3 C 13,9 C 12,8 C 56 % 1016,8 hPa 0,0 l/m 0 min 0 min 30 W/m 9,7 km/h (2 Bft) 97,83 %
17.02.2019 17:14 15,3 C 13,9 C 12,8 C 56 % 1016,8 hPa 0,0 l/m 0 min 0 min 28 W/m 9,7 km/h (2 Bft) 97,87 %
17.02.2019 17:16 15,2 C 13,9 C 12,8 C 56 % 1016,8 hPa 0,0 l/m 0 min 0 min 27 W/m 9,7 km/h (2 Bft) 100,00 %
17.02.2019 17:18 15,2 C 13,9 C 12,2 C 56 % 1016,8 hPa 0,0 l/m 0 min 0 min 26 W/m 6,4 km/h (2 Bft) 97,87 %
17.02.2019 17:20 15,1 C 13,9 C 12,2 C 56 % 1016,7 hPa 0,0 l/m 0 min 0 min 25 W/m 9,7 km/h (2 Bft) 100,00 %
17.02.2019 17:22 15,1 C 13,3 C 12,2 C 56 % 1016,7 hPa 0,0 l/m 0 min 0 min 23 W/m 12,9 km/h (3 Bft) 95,74 %
17.02.2019 17:24 15,0 C 13,3 C 12,2 C 56 % 1016,7 hPa 0,0 l/m 0 min 0 min 22 W/m 12,9 km/h (3 Bft) 97,83 %
17.02.2019 17:26 14,9 C 13,3 C 12,2 C 56 % 1016,7 hPa 0,0 l/m 0 min 0 min 21 W/m 12,9 km/h (3 Bft) 97,87 %
17.02.2019 17:28 14,8 C 13,3 C 12,2 C 56 % 1016,8 hPa 0,0 l/m 0 min 0 min 21 W/m 9,7 km/h (2 Bft) 97,87 %
17.02.2019 17:30 14,7 C 13,3 C 12,2 C 56 % 1016,8 hPa 0,0 l/m 0 min 0 min 20 W/m 9,7 km/h (2 Bft) 97,87 %
17.02.2019 17:32 14,7 C 12,8 C 12,2 C 56 % 1016,8 hPa 0,0 l/m 0 min 0 min 19 W/m 12,9 km/h (3 Bft) 91,49 %
17.02.2019 17:34 14,6 C 12,8 C 12,2 C 56 % 1016,7 hPa 0,0 l/m 0 min 0 min 17 W/m 9,7 km/h (2 Bft) 97,87 %
17.02.2019 17:36 14,5 C 12,8 C 12,2 C 56 % 1016,7 hPa 0,0 l/m 0 min 0 min 15 W/m 12,9 km/h (3 Bft) 84,78 %
17.02.2019 17:38 14,4 C 12,8 C 11,7 C 56 % 1016,7 hPa 0,0 l/m 0 min 0 min 14 W/m 9,7 km/h (2 Bft) 81,25 %
17.02.2019 17:40 14,3 C 12,8 C 11,7 C 57 % 1016,7 hPa 0,0 l/m 0 min 0 min 12 W/m 9,7 km/h (2 Bft) 89,36 %
17.02.2019 17:42 14,2 C 12,8 C 11,7 C 57 % 1016,7 hPa 0,0 l/m 0 min 0 min 11 W/m 9,7 km/h (2 Bft) 76,60 %
17.02.2019 17:44 14,2 C 12,8 C 11,7 C 57 % 1016,7 hPa 0,0 l/m 0 min 0 min 9 W/m 9,7 km/h (2 Bft) 63,83 %
17.02.2019 17:46 14,2 C 12,2 C 11,7 C 57 % 1016,7 hPa 0,0 l/m 0 min 0 min 8 W/m 6,4 km/h (2 Bft) 74,47 %
17.02.2019 17:48 14,1 C 12,2 C 11,7 C 57 % 1016,7 hPa 0,0 l/m 0 min 0 min 6 W/m 12,9 km/h (3 Bft) 73,91 %
17.02.2019 17:50 14,0 C 12,2 C 11,1 C 58 % 1016,7 hPa 0,0 l/m 0 min 0 min 5 W/m 12,9 km/h (3 Bft) 55,32 %
17.02.2019 17:52 13,9 C 12,2 C 11,1 C 58 % 1016,7 hPa 0,0 l/m 0 min 0 min 4 W/m 9,7 km/h (2 Bft) 85,11 %
17.02.2019 17:54 13,8 C 12,2 C 11,1 C 58 % 1016,7 hPa 0,0 l/m 0 min 0 min 0 W/m 12,9 km/h (3 Bft) 87,23 %
17.02.2019 17:56 13,8 C 12,2 C 11,1 C 58 % 1016,8 hPa 0,0 l/m 0 min 0 min 0 W/m 9,7 km/h (2 Bft) 97,87 %
17.02.2019 17:58 13,7 C 12,2 C 11,1 C 58 % 1016,8 hPa 0,0 l/m 0 min 0 min 0 W/m 9,7 km/h (2 Bft) 97,83 %
17.02.2019 18:00 13,6 C 12,2 C 10,6 C 58 % 1016,7 hPa 0,0 l/m 0 min 0 min 0 W/m 9,7 km/h (2 Bft) 97,87 %
17.02.2019 18:02 13,6 C 11,7 C 10,6 C 59 % 1016,7 hPa 0,0 l/m 0 min 0 min 0 W/m 6,4 km/h (2 Bft) 93,62 %
17.02.2019 18:04 13,5 C 11,7 C 10,6 C 59 % 1016,8 hPa 0,0 l/m 0 min 0 min 0 W/m 6,4 km/h (2 Bft) 93,62 %
17.02.2019 18:08 13,4 C 11,7 C 10,6 C 59 % 1016,8 hPa 0,0 l/m 0 min 0 min 0 W/m 9,7 km/h (2 Bft) 83,16 %
17.02.2019 18:10 13,3 C 11,7 C 10,6 C 59 % 1016,8 hPa 0,0 l/m 0 min 0 min 0 W/m 9,7 km/h (2 Bft) 80,43 %
17.02.2019 18:12 13,3 C 11,7 C 10,6 C 59 % 1016,9 hPa 0,0 l/m 0 min 0 min 0 W/m 9,7 km/h (2 Bft) 89,36 %
17.02.2019 18:14 13,2 C 11,7 C 10,6 C 59 % 1016,9 hPa 0,0 l/m 0 min 0 min 0 W/m 6,4 km/h (2 Bft) 87,23 %
17.02.2019 18:16 13,1 C 11,7 C 10,6 C 59 % 1016,9 hPa 0,0 l/m 0 min 0 min 0 W/m 9,7 km/h (2 Bft) 95,74 %
17.02.2019 18:18 13,1 C 11,7 C 10,6 C 59 % 1016,9 hPa 0,0 l/m 0 min 0 min 0 W/m 6,4 km/h (2 Bft) 97,87 %
17.02.2019 18:20 13,0 C 11,7 C 10,6 C 59 % 1016,9 hPa 0,0 l/m 0 min 0 min 0 W/m 6,4 km/h (2 Bft) 97,87 %
17.02.2019 18:22 12,9 C 11,7 C 10,6 C 59 % 1016,9 hPa 0,0 l/m 0 min 0 min 0 W/m 9,7 km/h (2 Bft) 97,83 %
17.02.2019 18:24 12,9 C 11,7 C 10,6 C 60 % 1016,9 hPa 0,0 l/m 0 min 0 min 0 W/m 12,9 km/h (3 Bft) 97,87 %
17.02.2019 18:26 12,8 C 11,7 C 10,6 C 60 % 1016,9 hPa 0,0 l/m 0 min 0 min 0 W/m 9,7 km/h (2 Bft) 97,87 %
17.02.2019 18:28 12,8 C 11,7 C 10,6 C 60 % 1017,0 hPa 0,0 l/m 0 min 0 min 0 W/m 12,9 km/h (3 Bft) 97,87 %
17.02.2019 18:30 12,7 C 11,7 C 10,6 C 60 % 1017,0 hPa 0,0 l/m 0 min 0 min 0 W/m 9,7 km/h (2 Bft) 97,87 %
17.02.2019 18:32 12,7 C 11,7 C 10,6 C 60 % 1017,0 hPa 0,0 l/m 0 min 0 min 0 W/m 9,7 km/h (2 Bft) 97,83 %
17.02.2019 18:34 12,7 C 11,7 C 10,6 C 60 % 1017,0 hPa 0,0 l/m 0 min 0 min 0 W/m 12,9 km/h (3 Bft) 97,87 %
17.02.2019 18:36 12,6 C 11,7 C 10,6 C 60 % 1017,0 hPa 0,0 l/m 0 min 0 min 0 W/m 16,1 km/h (3 Bft) 97,87 %
17.02.2019 18:38 12,6 C 11,7 C 10,6 C 60 % 1017,0 hPa 0,0 l/m 0 min 0 min 0 W/m 6,4 km/h (2 Bft) 97,87 %
17.02.2019 18:40 12,6 C 11,7 C 10,6 C 61 % 1017,1 hPa 0,0 l/m 0 min 0 min 0 W/m 12,9 km/h (3 Bft) 97,87 %
17.02.2019 18:42 12,6 C 11,7 C 10,6 C 61 % 1017,1 hPa 0,0 l/m 0 min 0 min 0 W/m 9,7 km/h (2 Bft) 97,87 %
17.02.2019 18:44 12,5 C 11,7 C 10,0 C 61 % 1017,1 hPa 0,0 l/m 0 min 0 min 0 W/m 9,7 km/h (2 Bft) 97,83 %
17.02.2019 18:46 12,5 C 11,7 C 10,0 C 61 % 1017,1 hPa 0,0 l/m 0 min 0 min 0 W/m 9,7 km/h (2 Bft) 97,87 %
17.02.2019 18:48 12,4 C 11,1 C 10,0 C 61 % 1017,1 hPa 0,0 l/m 0 min 0 min 0 W/m 9,7 km/h (2 Bft) 93,62 %
17.02.2019 18:50 12,4 C 11,1 C 10,0 C 61 % 1017,1 hPa 0,0 l/m 0 min 0 min 0 W/m 9,7 km/h (2 Bft) 95,74 %
17.02.2019 18:52 12,4 C 11,1 C 10,0 C 61 % 1017,1 hPa 0,0 l/m 0 min 0 min 0 W/m 9,7 km/h (2 Bft) 97,87 %
17.02.2019 18:54 12,3 C 11,1 C 10,0 C 61 % 1017,1 hPa 0,0 l/m 0 min 0 min 0 W/m 6,4 km/h (2 Bft) 97,87 %
17.02.2019 18:56 12,3 C 11,1 C 10,0 C 61 % 1017,2 hPa 0,0 l/m 0 min 0 min 0 W/m 9,7 km/h (2 Bft) 97,83 %
17.02.2019 18:58 12,3 C 11,1 C 10,0 C 62 % 1017,2 hPa 0,0 l/m 0 min 0 min 0 W/m 9,7 km/h (2 Bft) 97,87 %
17.02.2019 19:00 12,2 C 11,1 C 10,0 C 62 % 1017,1 hPa 0,0 l/m 0 min 0 min 0 W/m 12,9 km/h (3 Bft) 100,00 %
17.02.2019 19:02 12,2 C 11,1 C 10,0 C 62 % 1017,2 hPa 0,0 l/m 0 min 0 min 0 W/m 9,7 km/h (2 Bft) 97,87 %
17.02.2019 19:04 12,1 C 11,1 C 10,0 C 62 % 1017,1 hPa 0,0 l/m 0 min 0 min 0 W/m 12,9 km/h (3 Bft) 100,00 %
17.02.2019 19:06 12,1 C 11,1 C 10,0 C 62 % 1017,2 hPa 0,0 l/m 0 min 0 min 0 W/m 12,9 km/h (3 Bft) 97,87 %
17.02.2019 19:08 12,1 C 11,1 C 10,0 C 62 % 1017,2 hPa 0,0 l/m 0 min 0 min 0 W/m 9,7 km/h (2 Bft) 100,00 %
17.02.2019 19:10 12,0 C 11,1 C 10,0 C 62 % 1017,2 hPa 0,0 l/m 0 min 0 min 0 W/m 9,7 km/h (2 Bft) 100,00 %
17.02.2019 19:12 12,0 C 11,1 C 10,0 C 62 % 1017,3 hPa 0,0 l/m 0 min 0 min 0 W/m 9,7 km/h (2 Bft) 100,00 %
17.02.2019 19:14 11,9 C 10,6 C 10,0 C 62 % 1017,3 hPa 0,0 l/m 0 min 0 min 0 W/m 6,4 km/h (2 Bft) 97,87 %
17.02.2019 19:16 11,9 C 10,6 C 9,4 C 63 % 1017,3 hPa 0,0 l/m 0 min 0 min 0 W/m 9,7 km/h (2 Bft) 100,00 %
17.02.2019 19:18 11,9 C 10,6 C 10,0 C 63 % 1017,3 hPa 0,0 l/m 0 min 0 min 0 W/m 12,9 km/h (3 Bft) 100,00 %
17.02.2019 19:20 11,8 C 10,6 C 10,0 C 63 % 1017,4 hPa 0,0 l/m 0 min 0 min 0 W/m 12,9 km/h (3 Bft) 100,00 %
17.02.2019 19:22 11,8 C 10,6 C 10,0 C 63 % 1017,3 hPa 0,0 l/m 0 min 0 min 0 W/m 12,9 km/h (3 Bft) 100,00 %
17.02.2019 19:24 11,7 C 10,6 C 10,0 C 63 % 1017,4 hPa 0,0 l/m 0 min 0 min 0 W/m 9,7 km/h (2 Bft) 100,00 %
17.02.2019 19:26 11,7 C 10,6 C 9,4 C 63 % 1017,4 hPa 0,0 l/m 0 min 0 min 0 W/m 9,7 km/h (2 Bft) 100,00 %
17.02.2019 19:28 11,7 C 10,6 C 9,4 C 63 % 1017,4 hPa 0,0 l/m 0 min 0 min 0 W/m 9,7 km/h (2 Bft) 100,00 %
17.02.2019 19:30 11,6 C 10,6 C 9,4 C 63 % 1017,4 hPa 0,0 l/m 0 min 0 min 0 W/m 9,7 km/h (2 Bft) 100,00 %
17.02.2019 19:32 11,6 C 10,0 C 9,4 C 64 % 1017,4 hPa 0,0 l/m 0 min 0 min 0 W/m 9,7 km/h (2 Bft) 100,00 %
17.02.2019 19:34 11,5 C 10,0 C 9,4 C 64 % 1017,5 hPa 0,0 l/m 0 min 0 min 0 W/m 9,7 km/h (2 Bft) 100,00 %
17.02.2019 19:36 11,4 C 10,0 C 9,4 C 64 % 1017,5 hPa 0,0 l/m 0 min 0 min 0 W/m 9,7 km/h (2 Bft) 100,00 %
17.02.2019 19:38 11,4 C 10,0 C 9,4 C 64 % 1017,5 hPa 0,0 l/m 0 min 0 min 0 W/m 12,9 km/h (3 Bft) 100,00 %
17.02.2019 19:40 11,3 C 10,0 C 8,9 C 64 % 1017,5 hPa 0,0 l/m 0 min 0 min 0 W/m 12,9 km/h (3 Bft) 100,00 %
17.02.2019 19:42 11,3 C 10,0 C 8,9 C 64 % 1017,5 hPa 0,0 l/m 0 min 0 min 0 W/m 12,9 km/h (3 Bft) 95,74 %
17.02.2019 19:44 11,2 C 10,0 C 8,9 C 64 % 1017,4 hPa 0,0 l/m 0 min 0 min 0 W/m 12,9 km/h (3 Bft) 100,00 %
17.02.2019 19:46 11,2 C 10,0 C 8,9 C 65 % 1017,5 hPa 0,0 l/m 0 min 0 min 0 W/m 12,9 km/h (3 Bft) 93,62 %
17.02.2019 19:48 11,1 C 9,4 C 8,9 C 65 % 1017,5 hPa 0,0 l/m 0 min 0 min 0 W/m 9,7 km/h (2 Bft) 97,87 %
17.02.2019 19:50 11,1 C 9,4 C 8,9 C 65 % 1017,5 hPa 0,0 l/m 0 min 0 min 0 W/m 9,7 km/h (2 Bft) 97,87 %
17.02.2019 19:52 10,9 C 9,4 C 8,3 C 65 % 1017,4 hPa 0,0 l/m 0 min 0 min 0 W/m 9,7 km/h (2 Bft) 100,00 %
17.02.2019 19:54 10,9 C 9,4 C 8,3 C 65 % 1017,5 hPa 0,0 l/m 0 min 0 min 0 W/m 9,7 km/h (2 Bft) 100,00 %
17.02.2019 19:56 10,8 C 9,4 C 8,3 C 65 % 1017,5 hPa 0,0 l/m 0 min 0 min 0 W/m 12,9 km/h (3 Bft) 95,65 %
17.02.2019 19:58 10,8 C 9,4 C 8,3 C 66 % 1017,4 hPa 0,0 l/m 0 min 0 min 0 W/m 12,9 km/h (3 Bft) 95,74 %
17.02.2019 20:00 10,7 C 9,4 C 8,3 C 66 % 1017,5 hPa 0,0 l/m 0 min 0 min 0 W/m 9,7 km/h (2 Bft) 97,87 %
17.02.2019 20:02 10,7 C 9,4 C 8,3 C 66 % 1017,5 hPa 0,0 l/m 0 min 0 min 0 W/m 12,9 km/h (3 Bft) 95,74 %
17.02.2019 20:04 10,6 C 9,4 C 8,3 C 66 % 1017,5 hPa 0,0 l/m 0 min 0 min 0 W/m 12,9 km/h (3 Bft) 93,62 %
17.02.2019 20:06 10,5 C 8,9 C 8,3 C 66 % 1017,5 hPa 0,0 l/m 0 min 0 min 0 W/m 12,9 km/h (3 Bft) 95,65 %
17.02.2019 20:08 10,4 C 8,9 C 8,3 C 66 % 1017,5 hPa 0,0 l/m 0 min 0 min 0 W/m 9,7 km/h (2 Bft) 93,75 %
17.02.2019 20:10 10,3 C 8,9 C 7,8 C 66 % 1017,5 hPa 0,0 l/m 0 min 0 min 0 W/m 9,7 km/h (2 Bft) 95,74 %
17.02.2019 20:12 10,3 C 8,9 C 8,3 C 66 % 1017,5 hPa 0,0 l/m 0 min 0 min 0 W/m 12,9 km/h (3 Bft) 95,74 %
17.02.2019 20:14 10,2 C 8,9 C 8,3 C 67 % 1017,5 hPa 0,0 l/m 0 min 0 min 0 W/m 9,7 km/h (2 Bft) 97,87 %
17.02.2019 20:16 10,2 C 8,9 C 7,8 C 67 % 1017,5 hPa 0,0 l/m 0 min 0 min 0 W/m 6,4 km/h (2 Bft) 91,49 %
17.02.2019 20:18 10,2 C 8,9 C 7,8 C 67 % 1017,5 hPa 0,0 l/m 0 min 0 min 0 W/m 9,7 km/h (2 Bft) 95,65 %
17.02.2019 20:20 10,1 C 8,9 C 7,8 C 67 % 1017,6 hPa 0,0 l/m 0 min 0 min 0 W/m 9,7 km/h (2 Bft) 93,62 %
17.02.2019 20:22 10,1 C 8,9 C 7,8 C 67 % 1017,6 hPa 0,0 l/m 0 min 0 min 0 W/m 6,4 km/h (2 Bft) 91,49 %
17.02.2019 20:24 10,0 C 8,9 C 7,8 C 67 % 1017,5 hPa 0,0 l/m 0 min 0 min 0 W/m 9,7 km/h (2 Bft) 95,74 %
17.02.2019 20:26 10,0 C 8,9 C 7,8 C 67 % 1017,6 hPa 0,0 l/m 0 min 0 min 0 W/m 6,4 km/h (2 Bft) 95,74 %
17.02.2019 20:28 9,9 C 8,9 C 7,8 C 67 % 1017,6 hPa 0,0 l/m 0 min 0 min 0 W/m 9,7 km/h (2 Bft) 95,74 %
17.02.2019 20:30 9,9 C 8,9 C 7,8 C 67 % 1017,6 hPa 0,0 l/m 0 min 0 min 0 W/m 12,9 km/h (3 Bft) 95,65 %
17.02.2019 20:32 9,8 C 8,3 C 7,8 C 67 % 1017,6 hPa 0,0 l/m 0 min 0 min 0 W/m 9,7 km/h (2 Bft) 95,74 %
17.02.2019 20:34 9,8 C 8,3 C 7,8 C 67 % 1017,6 hPa 0,0 l/m 0 min 0 min 0 W/m 9,7 km/h (2 Bft) 95,74 %
17.02.2019 20:36 9,7 C 8,3 C 7,8 C 67 % 1017,6 hPa 0,0 l/m 0 min 0 min 0 W/m 9,7 km/h (2 Bft) 97,87 %
17.02.2019 20:38 9,7 C 8,3 C 7,8 C 67 % 1017,6 hPa 0,0 l/m 0 min 0 min 0 W/m 12,9 km/h (3 Bft) 97,92 %
17.02.2019 20:40 9,7 C 8,3 C 7,8 C 67 % 1017,6 hPa 0,0 l/m 0 min 0 min 0 W/m 9,7 km/h (2 Bft) 97,83 %
17.02.2019 20:42 9,6 C 8,3 C 7,8 C 67 % 1017,6 hPa 0,0 l/m 0 min 0 min 0 W/m 9,7 km/h (2 Bft) 97,87 %
17.02.2019 20:44 9,6 C 8,3 C 7,8 C 67 % 1017,6 hPa 0,0 l/m 0 min 0 min 0 W/m 9,7 km/h (2 Bft) 95,74 %
17.02.2019 20:46 9,5 C 8,3 C 7,2 C 67 % 1017,6 hPa 0,0 l/m 0 min 0 min 0 W/m 9,7 km/h (2 Bft) 97,87 %
17.02.2019 20:48 9,4 C 8,3 C 7,2 C 67 % 1017,7 hPa 0,0 l/m 0 min 0 min 0 W/m 12,9 km/h (3 Bft) 97,87 %
17.02.2019 20:50 9,4 C 8,3 C 7,2 C 67 % 1017,7 hPa 0,0 l/m 0 min 0 min 0 W/m 9,7 km/h (2 Bft) 97,87 %
17.02.2019 20:52 9,4 C 8,3 C 7,2 C 67 % 1017,7 hPa 0,0 l/m 0 min 0 min 0 W/m 9,7 km/h (2 Bft) 97,83 %
17.02.2019 20:54 9,4 C 8,3 C 7,2 C 67 % 1017,7 hPa 0,0 l/m 0 min 0 min 0 W/m 12,9 km/h (3 Bft) 97,87 %
17.02.2019 20:56 9,3 C 8,3 C 7,2 C 67 % 1017,8 hPa 0,0 l/m 0 min 0 min 0 W/m 9,7 km/h (2 Bft) 97,87 %
17.02.2019 20:58 9,3 C 7,8 C 7,2 C 67 % 1017,8 hPa 0,0 l/m 0 min 0 min 0 W/m 9,7 km/h (2 Bft) 97,87 %
17.02.2019 21:00 9,2 C 7,8 C 7,2 C 68 % 1017,8 hPa 0,0 l/m 0 min 0 min 0 W/m 9,7 km/h (2 Bft) 97,87 %
17.02.2019 21:02 9,2 C 7,8 C 7,2 C 68 % 1017,8 hPa 0,0 l/m 0 min 0 min 0 W/m 6,4 km/h (2 Bft) 97,87 %
17.02.2019 21:04 9,2 C 7,8 C 7,2 C 68 % 1017,8 hPa 0,0 l/m 0 min 0 min 0 W/m 9,7 km/h (2 Bft) 97,83 %
17.02.2019 21:06 9,1 C 7,8 C 7,2 C 68 % 1017,7 hPa 0,0 l/m 0 min 0 min 0 W/m 9,7 km/h (2 Bft) 93,62 %
17.02.2019 21:08 9,1 C 7,8 C 6,7 C 68 % 1017,8 hPa 0,0 l/m 0 min 0 min 0 W/m 6,4 km/h (2 Bft) 93,75 %
17.02.2019 21:10 9,1 C 7,8 C 6,7 C 68 % 1017,8 hPa 0,0 l/m 0 min 0 min 0 W/m 6,4 km/h (2 Bft) 95,74 %
17.02.2019 21:12 9,0 C 7,8 C 6,7 C 68 % 1017,7 hPa 0,0 l/m 0 min 0 min 0 W/m 6,4 km/h (2 Bft) 97,87 %
17.02.2019 21:14 8,9 C 7,8 C 6,7 C 68 % 1017,8 hPa 0,0 l/m 0 min 0 min 0 W/m 12,9 km/h (3 Bft) 97,87 %
17.02.2019 21:16 8,9 C 7,8 C 7,2 C 68 % 1017,7 hPa 0,0 l/m 0 min 0 min 0 W/m 9,7 km/h (2 Bft) 95,65 %
17.02.2019 21:18 8,9 C 7,8 C 7,2 C 68 % 1017,8 hPa 0,0 l/m 0 min 0 min 0 W/m 6,4 km/h (2 Bft) 97,87 %
17.02.2019 21:20 8,8 C 7,8 C 7,2 C 68 % 1017,8 hPa 0,0 l/m 0 min 0 min 0 W/m 9,7 km/h (2 Bft) 97,87 %
17.02.2019 21:22 8,8 C 7,8 C 6,7 C 68 % 1017,8 hPa 0,0 l/m 0 min 0 min 0 W/m 6,4 km/h (2 Bft) 97,87 %
17.02.2019 21:24 8,8 C 7,8 C 6,7 C 68 % 1017,8 hPa 0,0 l/m 0 min 0 min 0 W/m 6,4 km/h (2 Bft) 95,74 %
17.02.2019 21:26 8,8 C 7,8 C 6,7 C 68 % 1017,8 hPa 0,0 l/m 0 min 0 min 0 W/m 9,7 km/h (2 Bft) 95,74 %
17.02.2019 21:28 8,7 C 7,8 C 6,7 C 68 % 1017,8 hPa 0,0 l/m 0 min 0 min 0 W/m 6,4 km/h (2 Bft) 97,83 %
17.02.2019 21:30 8,7 C 7,8 C 6,7 C 68 % 1017,8 hPa 0,0 l/m 0 min 0 min 0 W/m 9,7 km/h (2 Bft) 97,87 %
17.02.2019 21:32 8,7 C 7,8 C 6,7 C 69 % 1017,8 hPa 0,0 l/m 0 min 0 min 0 W/m 9,7 km/h (2 Bft) 97,87 %
17.02.2019 21:34 8,7 C 7,8 C 6,7 C 69 % 1017,9 hPa 0,0 l/m 0 min 0 min 0 W/m 9,7 km/h (2 Bft) 95,74 %
17.02.2019 21:36 8,6 C 7,8 C 6,7 C 69 % 1017,9 hPa 0,0 l/m 0 min 0 min 0 W/m 9,7 km/h (2 Bft) 95,74 %
17.02.2019 21:38 8,6 C 7,8 C 6,7 C 69 % 1017,8 hPa 0,0 l/m 0 min 0 min 0 W/m 6,4 km/h (2 Bft) 97,83 %
17.02.2019 21:40 8,6 C 7,8 C 6,7 C 69 % 1018,0 hPa 0,0 l/m 0 min 0 min 0 W/m 9,7 km/h (2 Bft) 95,74 %
17.02.2019 21:42 8,6 C 7,2 C 6,7 C 69 % 1017,9 hPa 0,0 l/m 0 min 0 min 0 W/m 6,4 km/h (2 Bft) 91,49 %
17.02.2019 21:44 8,5 C 7,2 C 6,7 C 69 % 1017,9 hPa 0,0 l/m 0 min 0 min 0 W/m 6,4 km/h (2 Bft) 97,87 %
17.02.2019 21:46 8,5 C 7,2 C 6,7 C 69 % 1017,9 hPa 0,0 l/m 0 min 0 min 0 W/m 6,4 km/h (2 Bft) 97,87 %
17.02.2019 21:48 8,4 C 7,2 C 6,7 C 69 % 1017,9 hPa 0,0 l/m 0 min 0 min 0 W/m 6,4 km/h (2 Bft) 97,87 %
17.02.2019 21:50 8,4 C 7,2 C 6,7 C 69 % 1017,9 hPa 0,0 l/m 0 min 0 min 0 W/m 9,7 km/h (2 Bft) 97,83 %
17.02.2019 21:52 8,4 C 7,2 C 6,7 C 69 % 1017,9 hPa 0,0 l/m 0 min 0 min 0 W/m 9,7 km/h (2 Bft) 97,87 %
17.02.2019 21:54 8,4 C 7,2 C 6,1 C 69 % 1017,8 hPa 0,0 l/m 0 min 0 min 0 W/m 6,4 km/h (2 Bft) 97,87 %
17.02.2019 21:56 8,3 C 7,2 C 6,1 C 70 % 1017,9 hPa 0,0 l/m 0 min 0 min 0 W/m 6,4 km/h (2 Bft) 97,87 %
17.02.2019 21:58 8,3 C 7,2 C 6,1 C 70 % 1017,9 hPa 0,0 l/m 0 min 0 min 0 W/m 6,4 km/h (2 Bft) 91,49 %
17.02.2019 22:00 8,3 C 7,2 C 6,1 C 70 % 1017,9 hPa 0,0 l/m 0 min 0 min 0 W/m 6,4 km/h (2 Bft) 97,87 %
17.02.2019 22:02 8,3 C 7,2 C 6,1 C 70 % 1018,0 hPa 0,0 l/m 0 min 0 min 0 W/m 9,7 km/h (2 Bft) 95,65 %
17.02.2019 22:04 8,2 C 7,2 C 6,1 C 70 % 1018,0 hPa 0,0 l/m 0 min 0 min 0 W/m 9,7 km/h (2 Bft) 89,36 %
17.02.2019 22:06 8,2 C 7,2 C 6,1 C 70 % 1018,0 hPa 0,0 l/m 0 min 0 min 0 W/m 6,4 km/h (2 Bft) 100,00 %
17.02.2019 22:08 8,2 C 7,2 C 6,1 C 70 % 1018,1 hPa 0,0 l/m 0 min 0 min 0 W/m 9,7 km/h (2 Bft) 97,87 %
17.02.2019 22:10 8,2 C 7,2 C 6,1 C 70 % 1018,0 hPa 0,0 l/m 0 min 0 min 0 W/m 9,7 km/h (2 Bft) 100,00 %
17.02.2019 22:12 8,1 C 7,2 C 6,1 C 70 % 1018,0 hPa 0,0 l/m 0 min 0 min 0 W/m 9,7 km/h (2 Bft) 100,00 %
17.02.2019 22:14 8,1 C 7,2 C 6,1 C 70 % 1018,0 hPa 0,0 l/m 0 min 0 min 0 W/m 6,4 km/h (2 Bft) 95,65 %
17.02.2019 22:16 8,1 C 7,2 C 6,1 C 70 % 1018,0 hPa 0,0 l/m 0 min 0 min 0 W/m 6,4 km/h (2 Bft) 97,87 %
17.02.2019 22:18 8,1 C 7,2 C 6,1 C 70 % 1018,0 hPa 0,0 l/m 0 min 0 min 0 W/m 6,4 km/h (2 Bft) 97,87 %
17.02.2019 22:20 8,0 C 7,2 C 6,1 C 70 % 1018,1 hPa 0,0 l/m 0 min 0 min 0 W/m 6,4 km/h (2 Bft) 97,87 %
17.02.2019 22:22 8,0 C 7,2 C 6,1 C 70 % 1018,0 hPa 0,0 l/m 0 min 0 min 0 W/m 6,4 km/h (2 Bft) 95,74 %
17.02.2019 22:24 7,9 C 7,2 C 6,1 C 70 % 1018,1 hPa 0,0 l/m 0 min 0 min 0 W/m 6,4 km/h (2 Bft) 95,74 %
17.02.2019 22:26 7,9 C 7,2 C 5,6 C 70 % 1018,1 hPa 0,0 l/m 0 min 0 min 0 W/m 6,4 km/h (2 Bft) 97,83 %
17.02.2019 22:28 7,9 C 7,2 C 6,1 C 70 % 1018,0 hPa 0,0 l/m 0 min 0 min 0 W/m 9,7 km/h (2 Bft) 97,87 %
17.02.2019 22:30 7,9 C 7,2 C 6,1 C 71 % 1018,0 hPa 0,0 l/m 0 min 0 min 0 W/m 9,7 km/h (2 Bft) 95,74 %
17.02.2019 22:32 7,8 C 6,7 C 6,1 C 71 % 1018,1 hPa 0,0 l/m 0 min 0 min 0 W/m 9,7 km/h (2 Bft) 97,87 %
17.02.2019 22:34 7,8 C 6,7 C 6,1 C 70 % 1018,0 hPa 0,0 l/m 0 min 0 min 0 W/m 9,7 km/h (2 Bft) 97,87 %
17.02.2019 22:36 7,8 C 6,7 C 6,1 C 71 % 1018,0 hPa 0,0 l/m 0 min 0 min 0 W/m 6,4 km/h (2 Bft) 97,87 %
17.02.2019 22:38 7,8 C 6,7 C 5,6 C 71 % 1018,0 hPa 0,0 l/m 0 min 0 min 0 W/m 6,4 km/h (2 Bft) 97,83 %
17.02.2019 22:40 7,8 C 6,7 C 6,1 C 71 % 1018,0 hPa 0,0 l/m 0 min 0 min 0 W/m 6,4 km/h (2 Bft) 97,87 %
17.02.2019 22:42 7,7 C 6,7 C 5,6 C 71 % 1018,1 hPa 0,0 l/m 0 min 0 min 0 W/m 6,4 km/h (2 Bft) 97,87 %
17.02.2019 22:44 7,7 C 6,7 C 5,6 C 71 % 1018,1 hPa 0,0 l/m 0 min 0 min 0 W/m 9,7 km/h (2 Bft) 93,62 %
17.02.2019 22:46 7,7 C 6,7 C 5,6 C 71 % 1018,0 hPa 0,0 l/m 0 min 0 min 0 W/m 9,7 km/h (2 Bft) 97,87 %
17.02.2019 22:48 7,7 C 6,7 C 5,6 C 71 % 1018,0 hPa 0,0 l/m 0 min 0 min 0 W/m 9,7 km/h (2 Bft) 97,83 %
17.02.2019 22:50 7,6 C 6,7 C 5,6 C 71 % 1018,0 hPa 0,0 l/m 0 min 0 min 0 W/m 12,9 km/h (3 Bft) 97,87 %
17.02.2019 22:52 7,6 C 6,7 C 5,6 C 71 % 1017,9 hPa 0,0 l/m 0 min 0 min 0 W/m 9,7 km/h (2 Bft) 95,74 %
17.02.2019 22:54 7,6 C 6,7 C 6,1 C 71 % 1018,0 hPa 0,0 l/m 0 min 0 min 0 W/m 9,7 km/h (2 Bft) 100,00 %
17.02.2019 22:56 7,6 C 6,7 C 6,1 C 71 % 1018,0 hPa 0,0 l/m 0 min 0 min 0 W/m 6,4 km/h (2 Bft) 100,00 %
17.02.2019 22:58 7,6 C 6,7 C 5,6 C 71 % 1018,0 hPa 0,0 l/m 0 min 0 min 0 W/m 9,7 km/h (2 Bft) 100,00 %
17.02.2019 23:00 7,5 C 6,7 C 5,6 C 71 % 1018,0 hPa 0,0 l/m 0 min 0 min 0 W/m 9,7 km/h (2 Bft) 97,83 %
17.02.2019 23:02 7,5 C 6,7 C 5,6 C 71 % 1017,9 hPa 0,0 l/m 0 min 0 min 0 W/m 6,4 km/h (2 Bft) 100,00 %
17.02.2019 23:04 7,5 C 6,7 C 5,6 C 71 % 1017,9 hPa 0,0 l/m 0 min 0 min 0 W/m 9,7 km/h (2 Bft) 100,00 %
17.02.2019 23:06 7,4 C 6,7 C 5,6 C 71 % 1017,9 hPa 0,0 l/m 0 min 0 min 0 W/m 9,7 km/h (2 Bft) 100,00 %
17.02.2019 23:08 7,4 C 6,7 C 5,6 C 71 % 1018,0 hPa 0,0 l/m 0 min 0 min 0 W/m 9,7 km/h (2 Bft) 100,00 %
17.02.2019 23:10 7,4 C 6,7 C 6,1 C 71 % 1017,9 hPa 0,0 l/m 0 min 0 min 0 W/m 9,7 km/h (2 Bft) 100,00 %
17.02.2019 23:12 7,4 C 6,7 C 6,1 C 71 % 1017,9 hPa 0,0 l/m 0 min 0 min 0 W/m 9,7 km/h (2 Bft) 100,00 %
17.02.2019 23:14 7,4 C 6,7 C 6,1 C 71 % 1018,0 hPa 0,0 l/m 0 min 0 min 0 W/m 12,9 km/h (3 Bft) 100,00 %
17.02.2019 23:16 7,4 C 6,7 C 5,6 C 71 % 1018,0 hPa 0,0 l/m 0 min 0 min 0 W/m 12,9 km/h (3 Bft) 97,87 %
17.02.2019 23:18 7,4 C 6,7 C 6,1 C 71 % 1017,9 hPa 0,0 l/m 0 min 0 min 0 W/m 9,7 km/h (2 Bft) 100,00 %
17.02.2019 23:20 7,4 C 6,7 C 6,1 C 71 % 1017,9 hPa 0,0 l/m 0 min 0 min 0 W/m 9,7 km/h (2 Bft) 100,00 %
17.02.2019 23:22 7,4 C 6,7 C 5,6 C 71 % 1017,9 hPa 0,0 l/m 0 min 0 min 0 W/m 12,9 km/h (3 Bft) 100,00 %
17.02.2019 23:24 7,4 C 6,7 C 5,6 C 71 % 1017,9 hPa 0,0 l/m 0 min 0 min 0 W/m 6,4 km/h (2 Bft) 100,00 %
17.02.2019 23:26 7,4 C 6,7 C 5,6 C 71 % 1017,8 hPa 0,0 l/m 0 min 0 min 0 W/m 9,7 km/h (2 Bft) 97,87 %
17.02.2019 23:28 7,4 C 6,7 C 5,6 C 71 % 1017,8 hPa 0,0 l/m 0 min 0 min 0 W/m 9,7 km/h (2 Bft) 100,00 %
17.02.2019 23:30 7,4 C 6,7 C 5,6 C 71 % 1017,8 hPa 0,0 l/m 0 min 0 min 0 W/m 9,7 km/h (2 Bft) 100,00 %
17.02.2019 23:32 7,3 C 6,7 C 5,6 C 71 % 1017,8 hPa 0,0 l/m 0 min 0 min 0 W/m 9,7 km/h (2 Bft) 100,00 %
17.02.2019 23:34 7,3 C 6,7 C 5,6 C 71 % 1017,8 hPa 0,0 l/m 0 min 0 min 0 W/m 9,7 km/h (2 Bft) 100,00 %
17.02.2019 23:36 7,3 C 6,7 C 5,6 C 71 % 1017,7 hPa 0,0 l/m 0 min 0 min 0 W/m 6,4 km/h (2 Bft) 100,00 %
17.02.2019 23:38 7,3 C 6,7 C 5,6 C 71 % 1017,7 hPa 0,0 l/m 0 min 0 min 0 W/m 9,7 km/h (2 Bft) 100,00 %
17.02.2019 23:40 7,3 C 6,7 C 5,6 C 71 % 1017,8 hPa 0,0 l/m 0 min 0 min 0 W/m 12,9 km/h (3 Bft) 100,00 %
17.02.2019 23:42 7,3 C 6,7 C 5,6 C 71 % 1017,8 hPa 0,0 l/m 0 min 0 min 0 W/m 16,1 km/h (3 Bft) 97,87 %
17.02.2019 23:44 7,3 C 6,7 C 5,6 C 71 % 1017,7 hPa 0,0 l/m 0 min 0 min 0 W/m 12,9 km/h (3 Bft) 100,00 %
17.02.2019 23:46 7,3 C 6,7 C 6,1 C 71 % 1017,8 hPa 0,0 l/m 0 min 0 min 0 W/m 12,9 km/h (3 Bft) 97,87 %
17.02.2019 23:48 7,3 C 6,7 C 6,1 C 71 % 1017,7 hPa 0,0 l/m 0 min 0 min 0 W/m 9,7 km/h (2 Bft) 100,00 %
17.02.2019 23:50 7,3 C 6,7 C 5,6 C 71 % 1017,8 hPa 0,0 l/m 0 min 0 min 0 W/m 9,7 km/h (2 Bft) 97,87 %
17.02.2019 23:52 7,3 C 6,7 C 5,6 C 71 % 1017,7 hPa 0,0 l/m 0 min 0 min 0 W/m 9,7 km/h (2 Bft) 100,00 %
17.02.2019 23:54 7,3 C 6,7 C 5,6 C 71 % 1017,7 hPa 0,0 l/m 0 min 0 min 0 W/m 9,7 km/h (2 Bft) 100,00 %
17.02.2019 23:56 7,3 C 6,7 C 5,6 C 71 % 1017,8 hPa 0,0 l/m 0 min 0 min 0 W/m 9,7 km/h (2 Bft) 97,87 %
17.02.2019 23:58 7,3 C 6,7 C 5,6 C 71 % 1017,8 hPa 0,0 l/m 0 min 0 min 0 W/m 6,4 km/h (2 Bft) 100,00 %
_ Min-Zeit 00:44 00:20 00:18 16:18 17:20 - - - - 00:00 17:50
Minimum _ 2,7 C 1,1 C 0,0 C 51 % 1016,7 hPa - - - - 0,0 km/h (0 Bft) 55,32 %
_ Max-Zeit 15:32 13:18 12:58 01:12 00:10 00:00 12:07 00:00 13:12 13:56 01:26
Maximum _ 16,5 C 20,0 C 18,3 C 91 % 1022,8 hPa 0,0 l/m 3 min 0 min 508 W/m 32,2 km/h
SO (5 Bft)
100,00 %
Durchschnitt _ 8,7 C 9,1 C 7,4 C 74 % 1019,3 hPa #0,0 l/m #6:58 h #0 min. 261 W/m 12,7 km/h (3 Bft) 96,44 %
© 2019 W. Hausmann